GEFSNE_prec_meanprecacc_198.txt.gz
Total_Precipitation_Accumulation
1.42 1.61 1.62 1.56 1.64 1.72 1.87 1.96 2.04 1.90 1.79 1.65 1.37 1.27 1.31 1.33 1.47 1.38 1.38 1.25 1.00 0.91 0.88 0.86 0.84 0.89 1.02 1.22 1.39 1.52 1.72 1.87 1.97 2.06 2.14 2.28 2.43 2.57
1.62 1.77 1.74 1.66 1.70 1.76 1.91 2.09 2.27 2.24 1.93 1.54 1.41 1.41 1.49 1.41 1.54 1.40 1.38 1.44 1.21 1.02 0.91 0.90 0.89 0.91 0.95 1.09 1.24 1.37 1.49 1.59 1.70 1.79 1.84 1.87 1.93 2.07
1.59 1.69 1.72 1.75 1.78 1.81 1.96 2.05 2.24 2.45 2.20 1.76 1.64 1.68 1.78 1.76 1.66 1.48 1.30 1.25 1.14 1.09 0.95 0.90 0.89 0.91 0.97 1.03 1.16 1.28 1.36 1.43 1.55 1.66 1.74 1.80 1.80 1.84
1.65 1.72 1.61 1.72 1.86 1.85 1.96 1.99 2.08 2.35 2.25 2.01 1.94 1.93 1.98 1.91 1.88 1.69 1.39 1.25 1.19 1.14 0.96 0.87 0.86 0.86 0.90 0.92 1.01 1.16 1.28 1.35 1.38 1.40 1.46 1.57 1.70 1.80
1.68 1.66 1.61 1.77 1.80 1.87 1.97 1.92 1.91 2.06 2.20 2.13 2.09 2.16 2.18 2.06 1.97 1.80 1.63 1.56 1.29 1.20 1.12 1.04 1.02 1.01 1.00 0.98 0.99 1.07 1.19 1.32 1.43 1.49 1.53 1.59 1.63 1.67
1.70 1.66 1.65 1.70 1.71 1.76 1.84 1.89 1.94 2.04 2.13 2.15 2.20 2.35 2.35 2.39 2.32 2.07 1.96 1.90 1.62 1.29 1.28 1.21 1.14 1.08 1.00 0.94 0.93 0.99 1.08 1.26 1.42 1.47 1.50 1.55 1.60 1.59
1.81 1.72 1.61 1.59 1.62 1.65 1.59 1.66 1.78 1.90 1.90 1.95 2.01 2.23 2.32 2.44 2.41 2.23 2.10 2.09 1.93 1.58 1.45 1.36 1.31 1.21 1.16 1.12 1.01 0.96 1.00 1.12 1.28 1.39 1.42 1.49 1.58 1.62
1.88 1.83 1.67 1.53 1.47 1.41 1.31 1.31 1.40 1.49 1.65 1.84 1.89 2.07 2.25 2.38 2.53 2.59 2.45 2.29 2.17 1.92 1.81 1.68 1.47 1.41 1.26 1.14 1.11 0.94 0.85 0.89 0.97 1.09 1.21 1.34 1.46 1.60
1.77 1.76 1.54 1.38 1.43 1.34 1.35 1.31 1.28 1.34 1.44 1.65 1.81 1.87 2.07 2.27 2.49 2.65 2.65 2.54 2.38 2.23 2.12 1.97 1.65 1.46 1.29 1.17 1.10 0.88 0.76 0.71 0.73 0.81 0.89 1.02 1.13 1.25
1.60 1.62 1.57 1.48 1.47 1.51 1.45 1.34 1.24 1.29 1.37 1.37 1.41 1.56 1.81 2.16 2.36 2.39 2.50 2.49 2.39 2.27 2.21 2.16 1.91 1.71 1.50 1.36 1.27 1.00 0.84 0.74 0.70 0.68 0.70 0.75 0.86 0.98
1.47 1.48 1.48 1.42 1.47 1.38 1.31 1.30 1.29 1.31 1.29 1.27 1.24 1.29 1.42 1.64 1.99 2.13 2.19 2.15 2.05 1.84 1.74 1.81 1.77 1.72 1.66 1.53 1.36 1.20 1.00 0.86 0.79 0.77 0.75 0.74 0.79 0.88
1.46 1.44 1.37 1.24 1.20 1.15 1.14 1.26 1.24 1.23 1.27 1.22 1.14 1.08 1.05 1.21 1.50 1.69 1.76 1.79 1.69 1.65 1.40 1.39 1.42 1.47 1.59 1.47 1.32 1.25 1.18 1.15 1.05 0.92 0.84 0.79 0.88 0.85
1.44 1.45 1.36 1.27 1.09 1.05 1.04 1.08 1.11 1.10 1.17 1.21 1.18 1.15 1.16 1.17 1.22 1.36 1.55 1.65 1.60 1.42 1.29 1.31 1.33 1.35 1.37 1.34 1.29 1.21 1.21 1.25 1.23 1.18 1.12 1.09 1.11 1.08
1.43 1.41 1.42 1.28 1.07 1.01 0.95 0.94 0.95 0.90 0.93 1.05 1.04 0.99 1.01 1.01 1.04 1.17 1.36 1.49 1.56 1.41 1.29 1.33 1.36 1.30 1.26 1.16 1.09 1.02 1.03 1.16 1.31 1.41 1.37 1.38 1.36 1.43
1.34 1.38 1.32 1.18 0.98 0.85 0.85 0.83 0.77 0.75 0.83 0.93 0.94 0.87 0.84 0.88 0.96 1.10 1.25 1.39 1.43 1.37 1.24 1.24 1.27 1.26 1.23 1.12 0.99 0.91 0.92 0.97 1.07 1.26 1.45 1.54 1.52 1.54
1.30 1.27 1.15 1.09 0.94 0.85 0.85 0.79 0.72 0.78 0.87 0.90 0.93 0.93 0.90 0.92 0.95 1.01 1.12 1.22 1.29 1.22 1.14 1.13 1.20 1.28 1.21 1.06 1.02 0.94 0.89 0.90 0.88 0.99 1.27 1.55 1.76 1.86
1.48 1.42 1.30 1.19 1.05 0.95 0.94 0.96 0.97 1.03 1.01 0.99 1.03 1.08 1.05 0.99 0.96 0.99 1.12 1.16 1.12 1.05 1.04 1.08 1.14 1.28 1.27 1.13 1.04 0.96 0.95 0.89 0.83 0.87 1.04 1.22 1.46 1.71
1.37 1.30 1.26 1.18 1.10 1.09 1.13 1.14 1.13 1.13 1.10 1.10 1.12 1.15 1.16 1.07 0.99 0.98 1.08 1.14 1.09 1.02 0.99 1.01 1.17 1.34 1.36 1.23 0.92 0.82 0.83 0.83 0.84 0.95 1.05 1.04 1.09 1.21
1.29 1.30 1.27 1.23 1.16 1.14 1.16 1.17 1.14 1.13 1.17 1.17 1.18 1.19 1.23 1.23 1.19 1.13 1.11 1.16 1.14 1.10 1.05 1.06 1.15 1.22 1.17 1.01 0.87 0.69 0.71 0.77 0.88 0.97 1.05 1.00 0.93 0.98
1.21 1.26 1.24 1.22 1.19 1.15 1.12 1.13 1.13 1.16 1.16 1.15 1.18 1.21 1.27 1.28 1.29 1.22 1.14 1.12 1.14 1.16 1.15 1.10 1.04 1.00 0.99 0.93 0.88 0.83 0.72 0.81 0.91 0.95 0.99 1.01 0.97 0.93
1.15 1.14 1.11 1.06 1.03 1.04 1.03 1.02 1.01 1.03 1.05 1.12 1.12 1.12 1.18 1.17 1.12 1.09 1.10 1.10 1.11 1.17 1.09 0.93 0.88 0.96 1.13 1.28 1.12 0.88 0.82 0.81 0.92 0.99 1.06 1.14 1.13 1.12
1.05 1.01 1.00 0.98 0.98 0.99 1.00 0.98 0.98 0.99 1.03 1.12 1.13 1.12 1.13 1.11 1.05 1.04 1.09 1.12 1.10 1.09 1.11 1.08 1.16 1.24 1.28 1.26 1.09 0.93 0.95 1.03 1.05 1.06 1.07 1.03 1.03 0.99
0.96 0.92 0.91 0.87 0.87 0.88 0.89 0.92 0.96 1.01 1.04 1.09 1.13 1.15 1.18 1.16 1.10 1.10 1.14 1.18 1.17 1.18 1.31 1.35 1.30 1.26 1.20 1.20 1.17 1.10 1.09 1.21 1.32 1.32 1.23 1.04 0.80 0.66

GEFSNE_prec_meanprecacc_204.txt.gz
Total_Precipitation_Accumulation
1.50 1.68 1.69 1.62 1.68 1.76 1.93 2.05 2.13 1.99 1.86 1.71 1.43 1.32 1.37 1.39 1.54 1.43 1.42 1.30 1.05 0.95 0.92 0.90 0.89 0.95 1.08 1.28 1.46 1.60 1.82 2.00 2.14 2.28 2.37 2.50 2.62 2.74
1.73 1.88 1.83 1.74 1.77 1.82 1.96 2.15 2.35 2.33 2.00 1.60 1.47 1.48 1.55 1.46 1.60 1.43 1.42 1.49 1.26 1.05 0.95 0.94 0.94 0.95 0.99 1.14 1.29 1.43 1.57 1.69 1.84 1.97 2.04 2.08 2.13 2.25
1.68 1.80 1.84 1.87 1.88 1.89 2.03 2.12 2.33 2.54 2.27 1.81 1.70 1.74 1.84 1.82 1.73 1.54 1.36 1.30 1.17 1.12 0.99 0.93 0.92 0.95 1.00 1.06 1.20 1.33 1.42 1.51 1.66 1.80 1.93 2.02 2.03 2.03
1.74 1.81 1.70 1.81 1.94 1.93 2.06 2.08 2.17 2.45 2.34 2.09 2.05 2.04 2.05 1.97 1.94 1.74 1.42 1.28 1.22 1.18 1.00 0.92 0.91 0.91 0.95 0.98 1.08 1.23 1.35 1.43 1.47 1.51 1.58 1.72 1.90 2.04
1.74 1.72 1.68 1.84 1.86 1.95 2.06 2.02 2.01 2.15 2.29 2.22 2.19 2.27 2.26 2.13 2.03 1.84 1.67 1.59 1.33 1.23 1.16 1.08 1.07 1.06 1.05 1.05 1.07 1.14 1.24 1.36 1.47 1.56 1.61 1.69 1.75 1.83
1.74 1.71 1.71 1.75 1.77 1.83 1.92 1.99 2.04 2.13 2.22 2.24 2.29 2.45 2.44 2.46 2.38 2.13 2.01 1.95 1.67 1.34 1.33 1.25 1.18 1.11 1.03 0.97 0.96 1.01 1.10 1.28 1.45 1.54 1.59 1.66 1.72 1.71
1.83 1.76 1.66 1.66 1.69 1.71 1.67 1.76 1.87 1.98 1.98 2.03 2.08 2.29 2.38 2.50 2.47 2.28 2.16 2.16 2.00 1.63 1.48 1.39 1.33 1.23 1.17 1.13 1.02 0.98 1.02 1.14 1.32 1.46 1.52 1.59 1.67 1.69
1.91 1.86 1.72 1.59 1.54 1.49 1.39 1.41 1.48 1.56 1.71 1.91 1.96 2.13 2.30 2.43 2.58 2.64 2.51 2.35 2.22 1.96 1.84 1.70 1.49 1.42 1.27 1.15 1.12 0.95 0.86 0.91 1.00 1.14 1.27 1.41 1.53 1.67
1.80 1.80 1.58 1.44 1.51 1.45 1.47 1.41 1.36 1.40 1.48 1.70 1.87 1.93 2.13 2.33 2.55 2.71 2.70 2.60 2.43 2.27 2.14 1.99 1.67 1.48 1.30 1.20 1.12 0.90 0.78 0.72 0.75 0.82 0.91 1.05 1.17 1.30
1.65 1.71 1.67 1.60 1.59 1.62 1.53 1.40 1.29 1.33 1.42 1.41 1.46 1.62 1.87 2.22 2.41 2.44 2.55 2.54 2.41 2.28 2.22 2.18 1.93 1.74 1.54 1.39 1.30 1.03 0.87 0.78 0.73 0.70 0.72 0.78 0.90 1.02
1.50 1.53 1.56 1.50 1.56 1.45 1.36 1.33 1.32 1.35 1.33 1.32 1.29 1.33 1.47 1.68 2.02 2.16 2.22 2.18 2.08 1.85 1.75 1.83 1.79 1.76 1.70 1.57 1.39 1.23 1.02 0.89 0.83 0.80 0.79 0.78 0.84 0.93
1.48 1.46 1.41 1.29 1.25 1.20 1.18 1.30 1.28 1.27 1.31 1.26 1.18 1.12 1.09 1.24 1.54 1.72 1.79 1.82 1.73 1.67 1.42 1.40 1.44 1.50 1.63 1.51 1.36 1.28 1.21 1.18 1.08 0.96 0.89 0.87 0.96 0.92
1.47 1.47 1.38 1.29 1.11 1.07 1.07 1.11 1.15 1.14 1.21 1.24 1.20 1.17 1.18 1.19 1.24 1.39 1.58 1.68 1.63 1.44 1.31 1.33 1.35 1.38 1.41 1.38 1.32 1.24 1.24 1.28 1.26 1.22 1.16 1.14 1.18 1.15
1.47 1.44 1.44 1.30 1.09 1.02 0.96 0.95 0.97 0.91 0.94 1.05 1.04 1.01 1.02 1.03 1.06 1.19 1.39 1.52 1.60 1.45 1.32 1.37 1.39 1.33 1.29 1.19 1.12 1.05 1.05 1.18 1.33 1.44 1.41 1.42 1.41 1.47
1.35 1.40 1.33 1.19 0.99 0.86 0.86 0.84 0.77 0.75 0.84 0.93 0.95 0.88 0.84 0.89 0.98 1.13 1.28 1.41 1.46 1.39 1.27 1.28 1.31 1.29 1.27 1.15 1.01 0.94 0.94 0.99 1.08 1.28 1.47 1.57 1.56 1.57
1.31 1.28 1.17 1.10 0.96 0.86 0.86 0.80 0.73 0.79 0.88 0.90 0.94 0.94 0.90 0.92 0.96 1.02 1.13 1.24 1.31 1.24 1.15 1.15 1.23 1.31 1.24 1.09 1.05 0.96 0.91 0.92 0.89 1.00 1.29 1.58 1.79 1.88
1.49 1.42 1.30 1.20 1.06 0.96 0.95 0.96 0.97 1.03 1.01 0.99 1.04 1.08 1.06 0.99 0.96 1.00 1.13 1.17 1.13 1.07 1.06 1.09 1.16 1.29 1.29 1.15 1.06 0.98 0.97 0.91 0.85 0.90 1.07 1.24 1.47 1.72
1.38 1.31 1.26 1.18 1.10 1.09 1.13 1.15 1.14 1.14 1.10 1.11 1.13 1.16 1.17 1.08 0.99 0.99 1.09 1.15 1.09 1.03 1.01 1.03 1.18 1.35 1.37 1.24 0.93 0.84 0.86 0.86 0.87 0.99 1.09 1.07 1.12 1.23
1.30 1.30 1.27 1.24 1.17 1.14 1.17 1.17 1.14 1.13 1.17 1.18 1.18 1.19 1.24 1.23 1.19 1.13 1.11 1.16 1.15 1.11 1.06 1.07 1.16 1.23 1.18 1.02 0.88 0.69 0.72 0.79 0.89 0.99 1.08 1.03 0.95 1.00
1.22 1.27 1.24 1.22 1.19 1.15 1.12 1.13 1.13 1.16 1.16 1.15 1.18 1.21 1.28 1.29 1.31 1.23 1.16 1.13 1.15 1.18 1.16 1.12 1.06 1.02 1.01 0.95 0.90 0.84 0.73 0.82 0.92 0.97 1.01 1.03 0.99 0.95
1.17 1.15 1.11 1.06 1.04 1.04 1.03 1.02 1.01 1.03 1.05 1.12 1.12 1.13 1.19 1.17 1.13 1.11 1.11 1.11 1.12 1.19 1.11 0.95 0.90 0.97 1.14 1.29 1.14 0.89 0.83 0.82 0.93 1.01 1.08 1.16 1.16 1.15
1.07 1.03 1.02 0.98 0.98 0.99 1.00 0.98 0.98 0.99 1.03 1.12 1.13 1.13 1.15 1.13 1.07 1.07 1.12 1.15 1.12 1.12 1.14 1.11 1.19 1.26 1.30 1.27 1.10 0.94 0.96 1.05 1.06 1.07 1.09 1.05 1.06 1.02
0.97 0.94 0.92 0.88 0.87 0.88 0.90 0.92 0.96 1.01 1.04 1.09 1.13 1.15 1.18 1.17 1.12 1.12 1.16 1.21 1.21 1.23 1.36 1.40 1.34 1.29 1.23 1.22 1.19 1.11 1.11 1.23 1.34 1.34 1.25 1.07 0.82 0.67

GEFSNE_prec_meanprecacc_210.txt.gz
Total_Precipitation_Accumulation
1.60 1.79 1.78 1.71 1.76 1.83 2.01 2.15 2.27 2.14 1.99 1.81 1.50 1.40 1.47 1.52 1.66 1.50 1.49 1.35 1.08 0.97 0.95 0.93 0.92 0.98 1.11 1.32 1.50 1.65 1.87 2.05 2.19 2.34 2.45 2.62 2.77 2.91
1.82 1.99 1.93 1.83 1.85 1.89 2.04 2.24 2.45 2.46 2.13 1.70 1.56 1.55 1.65 1.58 1.72 1.50 1.47 1.53 1.28 1.07 0.96 0.96 0.96 0.98 1.02 1.17 1.33 1.48 1.62 1.74 1.88 2.02 2.11 2.17 2.24 2.39
1.74 1.89 1.94 1.98 1.97 1.97 2.12 2.24 2.47 2.69 2.42 1.94 1.82 1.84 1.96 1.94 1.83 1.61 1.43 1.36 1.21 1.15 1.00 0.94 0.93 0.96 1.02 1.08 1.23 1.37 1.45 1.54 1.69 1.84 1.97 2.07 2.09 2.11
1.80 1.90 1.81 1.94 2.07 2.03 2.17 2.21 2.31 2.59 2.49 2.24 2.17 2.15 2.14 2.04 2.00 1.79 1.48 1.33 1.26 1.22 1.02 0.93 0.92 0.93 0.97 1.00 1.10 1.25 1.38 1.45 1.49 1.53 1.60 1.74 1.93 2.07
1.79 1.79 1.75 1.94 1.96 2.05 2.16 2.12 2.11 2.26 2.42 2.33 2.28 2.36 2.33 2.19 2.09 1.91 1.73 1.65 1.37 1.29 1.20 1.11 1.09 1.08 1.07 1.06 1.07 1.15 1.26 1.39 1.49 1.57 1.63 1.71 1.77 1.85
1.81 1.76 1.76 1.80 1.83 1.90 2.01 2.08 2.13 2.23 2.34 2.35 2.40 2.54 2.52 2.54 2.46 2.19 2.07 2.02 1.73 1.39 1.38 1.29 1.21 1.13 1.06 0.99 0.97 1.02 1.12 1.30 1.47 1.55 1.60 1.68 1.73 1.72
1.89 1.81 1.71 1.72 1.75 1.78 1.73 1.82 1.93 2.06 2.08 2.14 2.20 2.42 2.50 2.61 2.56 2.36 2.23 2.23 2.07 1.68 1.53 1.42 1.37 1.26 1.21 1.16 1.05 0.99 1.03 1.15 1.33 1.47 1.53 1.60 1.68 1.70
1.97 1.92 1.77 1.66 1.62 1.55 1.44 1.46 1.54 1.64 1.81 2.02 2.07 2.25 2.44 2.57 2.69 2.73 2.59 2.43 2.29 2.02 1.90 1.75 1.52 1.45 1.30 1.17 1.14 0.97 0.87 0.92 1.01 1.14 1.28 1.42 1.54 1.68
1.86 1.85 1.64 1.49 1.57 1.51 1.53 1.48 1.45 1.53 1.63 1.86 2.01 2.05 2.24 2.43 2.64 2.79 2.79 2.69 2.49 2.32 2.19 2.03 1.69 1.50 1.32 1.21 1.14 0.91 0.78 0.73 0.76 0.83 0.92 1.06 1.18 1.31
1.70 1.74 1.71 1.63 1.63 1.67 1.59 1.48 1.39 1.45 1.54 1.51 1.54 1.67 1.91 2.26 2.45 2.48 2.60 2.60 2.46 2.31 2.25 2.20 1.95 1.75 1.55 1.41 1.31 1.03 0.87 0.78 0.74 0.72 0.75 0.81 0.93 1.04
1.55 1.57 1.59 1.53 1.59 1.48 1.39 1.38 1.37 1.40 1.38 1.36 1.32 1.36 1.49 1.70 2.04 2.19 2.26 2.22 2.12 1.88 1.77 1.85 1.82 1.79 1.73 1.59 1.41 1.23 1.03 0.90 0.84 0.82 0.82 0.82 0.88 0.97
1.53 1.51 1.45 1.32 1.27 1.22 1.20 1.31 1.30 1.29 1.34 1.28 1.20 1.14 1.11 1.26 1.56 1.74 1.82 1.85 1.76 1.70 1.45 1.43 1.46 1.52 1.65 1.53 1.37 1.29 1.21 1.18 1.08 0.96 0.90 0.89 0.99 0.96
1.51 1.51 1.40 1.31 1.13 1.09 1.09 1.13 1.17 1.16 1.24 1.27 1.23 1.19 1.20 1.20 1.25 1.39 1.59 1.71 1.67 1.48 1.35 1.37 1.39 1.41 1.43 1.40 1.34 1.26 1.26 1.30 1.27 1.23 1.17 1.15 1.20 1.17
1.50 1.47 1.46 1.32 1.11 1.04 0.98 0.97 0.99 0.93 0.96 1.08 1.06 1.02 1.04 1.04 1.07 1.21 1.41 1.54 1.62 1.47 1.35 1.40 1.43 1.37 1.33 1.22 1.15 1.08 1.07 1.20 1.35 1.46 1.43 1.44 1.43 1.49
1.37 1.41 1.35 1.20 1.00 0.87 0.86 0.84 0.78 0.76 0.85 0.95 0.96 0.89 0.86 0.91 1.00 1.15 1.29 1.43 1.47 1.40 1.28 1.29 1.33 1.31 1.29 1.18 1.03 0.96 0.96 1.01 1.10 1.29 1.49 1.59 1.58 1.60
1.32 1.29 1.17 1.10 0.96 0.87 0.87 0.80 0.73 0.80 0.89 0.91 0.95 0.95 0.92 0.94 0.97 1.03 1.14 1.26 1.32 1.25 1.17 1.16 1.24 1.33 1.26 1.11 1.07 0.98 0.93 0.94 0.91 1.02 1.31 1.60 1.81 1.90
1.49 1.42 1.31 1.20 1.06 0.96 0.95 0.97 0.98 1.04 1.03 1.01 1.05 1.10 1.07 1.00 0.97 1.00 1.14 1.18 1.14 1.08 1.07 1.10 1.17 1.31 1.30 1.16 1.08 0.99 0.98 0.93 0.87 0.92 1.09 1.27 1.50 1.74
1.38 1.32 1.27 1.19 1.11 1.10 1.14 1.16 1.14 1.15 1.12 1.13 1.14 1.17 1.17 1.09 1.00 0.99 1.09 1.15 1.10 1.04 1.02 1.04 1.19 1.37 1.40 1.26 0.95 0.85 0.87 0.87 0.89 1.02 1.11 1.09 1.14 1.25
1.31 1.31 1.28 1.25 1.18 1.16 1.19 1.19 1.15 1.14 1.18 1.19 1.19 1.20 1.24 1.24 1.20 1.14 1.12 1.17 1.15 1.11 1.06 1.08 1.17 1.24 1.20 1.05 0.90 0.71 0.74 0.81 0.92 1.02 1.11 1.06 0.98 1.02
1.22 1.27 1.26 1.24 1.21 1.18 1.14 1.15 1.15 1.17 1.17 1.16 1.19 1.22 1.28 1.30 1.31 1.24 1.16 1.13 1.16 1.19 1.17 1.13 1.07 1.04 1.03 0.98 0.92 0.86 0.75 0.84 0.94 0.99 1.03 1.05 1.02 0.98
1.17 1.16 1.13 1.09 1.06 1.06 1.05 1.03 1.02 1.03 1.06 1.12 1.13 1.14 1.20 1.18 1.14 1.11 1.12 1.12 1.13 1.20 1.13 0.97 0.92 1.00 1.18 1.34 1.18 0.93 0.87 0.86 0.96 1.03 1.10 1.19 1.18 1.18
1.07 1.03 1.03 1.00 1.00 1.00 1.01 0.99 0.98 0.99 1.04 1.13 1.14 1.13 1.15 1.13 1.08 1.07 1.13 1.15 1.13 1.13 1.15 1.14 1.22 1.31 1.36 1.33 1.15 0.99 1.02 1.10 1.11 1.11 1.11 1.07 1.07 1.04
0.98 0.95 0.93 0.89 0.88 0.89 0.91 0.93 0.97 1.02 1.05 1.09 1.13 1.16 1.19 1.17 1.13 1.13 1.17 1.21 1.21 1.24 1.37 1.41 1.36 1.33 1.27 1.27 1.24 1.17 1.16 1.29 1.38 1.38 1.28 1.09 0.83 0.68

GEFSNE_prec_meanprecacc_216.txt.gz
Total_Precipitation_Accumulation
1.66 1.85 1.84 1.76 1.82 1.89 2.07 2.22 2.33 2.18 2.04 1.87 1.56 1.45 1.52 1.59 1.76 1.60 1.58 1.43 1.15 1.02 0.99 0.97 0.95 1.01 1.14 1.35 1.54 1.68 1.90 2.08 2.22 2.37 2.49 2.66 2.82 2.97
1.86 2.04 2.00 1.90 1.92 1.96 2.10 2.31 2.52 2.52 2.18 1.75 1.61 1.59 1.70 1.64 1.81 1.57 1.52 1.57 1.33 1.11 1.00 1.00 0.99 1.00 1.04 1.19 1.35 1.50 1.64 1.76 1.91 2.05 2.13 2.19 2.27 2.42
1.79 1.94 2.00 2.06 2.06 2.06 2.19 2.30 2.53 2.77 2.49 2.00 1.88 1.88 1.99 1.98 1.89 1.66 1.47 1.39 1.24 1.18 1.03 0.97 0.96 0.98 1.03 1.09 1.24 1.38 1.47 1.55 1.71 1.86 1.99 2.09 2.11 2.13
1.84 1.96 1.87 2.00 2.14 2.12 2.25 2.26 2.36 2.65 2.55 2.30 2.24 2.19 2.18 2.07 2.04 1.84 1.53 1.38 1.31 1.26 1.06 0.97 0.96 0.95 0.99 1.02 1.12 1.28 1.40 1.47 1.51 1.55 1.62 1.77 1.95 2.09
1.85 1.84 1.80 1.99 2.02 2.12 2.24 2.20 2.17 2.31 2.48 2.41 2.35 2.42 2.39 2.26 2.16 1.97 1.79 1.73 1.44 1.37 1.28 1.17 1.14 1.12 1.11 1.10 1.10 1.17 1.28 1.40 1.51 1.59 1.65 1.73 1.79 1.86
1.86 1.82 1.81 1.86 1.90 1.97 2.07 2.16 2.22 2.32 2.42 2.43 2.48 2.61 2.59 2.62 2.54 2.30 2.18 2.11 1.82 1.49 1.46 1.35 1.26 1.16 1.08 1.02 1.00 1.05 1.15 1.32 1.49 1.57 1.62 1.69 1.74 1.74
1.94 1.86 1.76 1.77 1.82 1.85 1.80 1.90 2.02 2.16 2.17 2.23 2.29 2.50 2.59 2.70 2.67 2.48 2.35 2.33 2.16 1.77 1.61 1.48 1.40 1.28 1.24 1.19 1.08 1.03 1.06 1.18 1.35 1.49 1.55 1.61 1.69 1.71
2.00 1.95 1.81 1.71 1.68 1.63 1.54 1.55 1.62 1.71 1.87 2.08 2.13 2.33 2.52 2.67 2.85 2.89 2.71 2.54 2.38 2.10 1.98 1.83 1.59 1.50 1.34 1.22 1.18 1.00 0.89 0.94 1.03 1.17 1.30 1.43 1.55 1.70
1.89 1.88 1.66 1.52 1.60 1.53 1.55 1.51 1.49 1.58 1.67 1.90 2.07 2.14 2.35 2.54 2.76 2.90 2.89 2.78 2.58 2.41 2.28 2.13 1.79 1.58 1.38 1.26 1.18 0.95 0.81 0.75 0.78 0.85 0.93 1.07 1.19 1.32
1.72 1.77 1.73 1.65 1.65 1.68 1.61 1.50 1.41 1.47 1.56 1.54 1.58 1.72 1.97 2.32 2.50 2.54 2.67 2.68 2.54 2.37 2.30 2.26 2.01 1.80 1.59 1.44 1.34 1.06 0.90 0.80 0.76 0.73 0.76 0.82 0.94 1.06
1.57 1.60 1.62 1.56 1.62 1.50 1.40 1.39 1.38 1.41 1.40 1.38 1.35 1.39 1.52 1.73 2.07 2.22 2.30 2.26 2.15 1.91 1.80 1.87 1.84 1.81 1.75 1.61 1.43 1.25 1.05 0.91 0.85 0.83 0.83 0.83 0.89 0.98
1.57 1.54 1.48 1.36 1.31 1.25 1.22 1.33 1.31 1.30 1.35 1.30 1.21 1.15 1.12 1.27 1.57 1.75 1.83 1.87 1.78 1.72 1.46 1.45 1.49 1.55 1.66 1.54 1.38 1.31 1.23 1.19 1.10 0.97 0.91 0.89 0.99 0.96
1.54 1.53 1.43 1.35 1.17 1.13 1.12 1.16 1.19 1.17 1.25 1.28 1.24 1.21 1.21 1.21 1.26 1.40 1.60 1.72 1.68 1.49 1.36 1.39 1.41 1.43 1.45 1.41 1.35 1.27 1.28 1.32 1.29 1.24 1.18 1.16 1.20 1.18
1.51 1.48 1.47 1.34 1.13 1.07 1.00 0.99 1.00 0.94 0.97 1.08 1.07 1.03 1.04 1.05 1.08 1.22 1.42 1.55 1.63 1.48 1.36 1.42 1.44 1.38 1.34 1.23 1.16 1.09 1.08 1.21 1.37 1.48 1.45 1.45 1.44 1.50
1.38 1.42 1.35 1.21 1.01 0.88 0.87 0.85 0.79 0.77 0.85 0.95 0.96 0.90 0.87 0.91 1.01 1.16 1.30 1.44 1.48 1.41 1.29 1.31 1.35 1.33 1.30 1.19 1.05 0.97 0.98 1.02 1.11 1.30 1.50 1.61 1.60 1.61
1.33 1.29 1.17 1.11 0.97 0.87 0.87 0.81 0.73 0.80 0.89 0.92 0.95 0.96 0.92 0.94 0.98 1.04 1.15 1.26 1.33 1.26 1.17 1.17 1.25 1.33 1.27 1.12 1.08 0.98 0.94 0.95 0.92 1.02 1.31 1.60 1.82 1.92
1.50 1.43 1.31 1.20 1.07 0.97 0.96 0.97 0.98 1.05 1.03 1.01 1.06 1.11 1.08 1.01 0.97 1.01 1.14 1.19 1.15 1.08 1.08 1.11 1.17 1.31 1.30 1.17 1.09 1.00 0.99 0.94 0.88 0.94 1.10 1.28 1.51 1.75
1.38 1.32 1.27 1.19 1.11 1.10 1.14 1.16 1.15 1.15 1.12 1.13 1.15 1.18 1.18 1.09 1.00 0.99 1.09 1.15 1.10 1.04 1.02 1.04 1.19 1.37 1.40 1.26 0.96 0.86 0.89 0.90 0.91 1.04 1.14 1.12 1.17 1.27
1.31 1.31 1.28 1.25 1.18 1.16 1.19 1.19 1.16 1.14 1.18 1.19 1.20 1.20 1.25 1.24 1.20 1.14 1.12 1.17 1.15 1.11 1.07 1.08 1.17 1.25 1.20 1.06 0.91 0.72 0.76 0.83 0.94 1.05 1.14 1.08 1.02 1.06
1.22 1.27 1.26 1.24 1.21 1.18 1.15 1.16 1.15 1.17 1.17 1.17 1.20 1.23 1.29 1.30 1.31 1.24 1.16 1.14 1.16 1.19 1.18 1.13 1.07 1.04 1.04 0.99 0.93 0.88 0.77 0.86 0.97 1.01 1.06 1.09 1.06 1.03
1.18 1.17 1.13 1.09 1.06 1.07 1.06 1.03 1.03 1.04 1.06 1.13 1.13 1.14 1.20 1.19 1.15 1.12 1.12 1.12 1.13 1.20 1.13 0.97 0.92 1.01 1.19 1.35 1.19 0.95 0.89 0.89 1.00 1.08 1.15 1.23 1.22 1.21
1.09 1.04 1.04 1.01 1.01 1.01 1.01 0.99 0.99 1.00 1.05 1.13 1.14 1.13 1.15 1.14 1.08 1.08 1.13 1.15 1.13 1.14 1.16 1.14 1.22 1.31 1.36 1.34 1.17 1.02 1.05 1.12 1.13 1.15 1.15 1.12 1.12 1.08
1.00 0.96 0.94 0.90 0.89 0.89 0.91 0.94 0.98 1.03 1.06 1.10 1.14 1.16 1.20 1.18 1.13 1.13 1.17 1.22 1.22 1.24 1.38 1.41 1.36 1.33 1.28 1.28 1.25 1.19 1.20 1.32 1.41 1.41 1.31 1.12 0.87 0.72

GEFSNE_prec_meanprecacc_222.txt.gz
Total_Precipitation_Accumulation
1.73 1.95 1.93 1.83 1.90 1.98 2.16 2.31 2.41 2.24 2.10 1.94 1.62 1.49 1.55 1.60 1.77 1.62 1.60 1.46 1.19 1.07 1.03 1.01 0.99 1.05 1.18 1.38 1.56 1.71 1.93 2.12 2.27 2.42 2.53 2.70 2.86 3.01
1.90 2.09 2.05 1.96 1.98 2.01 2.16 2.39 2.61 2.61 2.25 1.82 1.67 1.64 1.73 1.67 1.84 1.60 1.55 1.60 1.35 1.13 1.02 1.02 1.02 1.03 1.07 1.22 1.39 1.53 1.67 1.79 1.94 2.08 2.16 2.22 2.29 2.45
1.81 1.96 2.03 2.11 2.12 2.11 2.24 2.35 2.60 2.84 2.55 2.05 1.93 1.94 2.05 2.03 1.93 1.69 1.49 1.41 1.27 1.22 1.06 1.00 1.00 1.02 1.07 1.14 1.27 1.41 1.49 1.57 1.73 1.88 2.01 2.11 2.13 2.15
1.86 1.98 1.89 2.03 2.17 2.16 2.29 2.31 2.41 2.71 2.61 2.35 2.28 2.24 2.24 2.13 2.10 1.89 1.58 1.42 1.35 1.30 1.10 1.01 1.00 1.00 1.04 1.06 1.16 1.31 1.43 1.50 1.54 1.58 1.65 1.79 1.97 2.11
1.88 1.87 1.84 2.03 2.05 2.15 2.27 2.25 2.23 2.38 2.55 2.47 2.42 2.50 2.48 2.35 2.25 2.07 1.88 1.80 1.51 1.43 1.33 1.22 1.20 1.17 1.16 1.15 1.14 1.21 1.32 1.44 1.54 1.61 1.67 1.75 1.82 1.89
1.89 1.85 1.84 1.88 1.91 1.99 2.11 2.20 2.27 2.39 2.50 2.52 2.57 2.71 2.68 2.70 2.64 2.41 2.28 2.20 1.90 1.55 1.52 1.41 1.33 1.24 1.16 1.08 1.06 1.12 1.22 1.39 1.54 1.60 1.64 1.71 1.76 1.76
1.97 1.87 1.77 1.78 1.83 1.87 1.84 1.94 2.07 2.21 2.23 2.32 2.39 2.60 2.67 2.78 2.77 2.61 2.47 2.43 2.24 1.84 1.67 1.54 1.47 1.35 1.31 1.26 1.15 1.09 1.12 1.24 1.41 1.53 1.57 1.63 1.71 1.73
2.02 1.95 1.81 1.71 1.68 1.64 1.55 1.56 1.64 1.74 1.90 2.12 2.20 2.41 2.60 2.75 2.93 3.00 2.84 2.64 2.47 2.18 2.06 1.92 1.69 1.60 1.43 1.29 1.26 1.07 0.96 1.00 1.08 1.20 1.32 1.45 1.57 1.71
1.90 1.89 1.67 1.53 1.61 1.54 1.56 1.52 1.51 1.60 1.69 1.92 2.10 2.20 2.41 2.61 2.83 2.96 2.95 2.84 2.64 2.48 2.34 2.20 1.88 1.68 1.48 1.35 1.28 1.03 0.89 0.82 0.83 0.89 0.97 1.10 1.21 1.34
1.73 1.77 1.74 1.67 1.67 1.70 1.62 1.50 1.42 1.49 1.58 1.56 1.60 1.75 2.01 2.35 2.53 2.57 2.69 2.70 2.56 2.40 2.34 2.30 2.06 1.85 1.63 1.49 1.40 1.12 0.95 0.86 0.80 0.78 0.79 0.85 0.96 1.08
1.58 1.61 1.63 1.58 1.65 1.54 1.43 1.42 1.41 1.44 1.42 1.40 1.36 1.41 1.55 1.76 2.09 2.24 2.32 2.28 2.17 1.93 1.82 1.90 1.88 1.84 1.77 1.63 1.45 1.28 1.08 0.95 0.88 0.86 0.85 0.85 0.91 1.00
1.58 1.56 1.50 1.37 1.34 1.29 1.28 1.39 1.37 1.35 1.39 1.34 1.26 1.19 1.15 1.29 1.59 1.77 1.85 1.89 1.80 1.74 1.48 1.46 1.51 1.56 1.67 1.55 1.39 1.32 1.24 1.21 1.11 0.99 0.92 0.91 1.01 0.97
1.54 1.54 1.44 1.37 1.19 1.16 1.15 1.19 1.22 1.19 1.26 1.29 1.26 1.23 1.23 1.23 1.28 1.43 1.62 1.73 1.70 1.51 1.37 1.39 1.42 1.44 1.45 1.42 1.35 1.28 1.29 1.33 1.30 1.25 1.20 1.17 1.21 1.18
1.51 1.48 1.47 1.35 1.14 1.08 1.01 1.00 1.02 0.95 0.98 1.09 1.08 1.04 1.05 1.05 1.09 1.22 1.42 1.56 1.64 1.49 1.37 1.42 1.44 1.38 1.34 1.24 1.16 1.09 1.09 1.21 1.37 1.49 1.46 1.47 1.45 1.51
1.38 1.42 1.36 1.22 1.03 0.89 0.88 0.86 0.79 0.77 0.86 0.96 0.97 0.90 0.87 0.91 1.01 1.16 1.31 1.44 1.48 1.41 1.29 1.31 1.35 1.33 1.31 1.20 1.05 0.97 0.98 1.02 1.11 1.30 1.51 1.61 1.61 1.62
1.34 1.31 1.18 1.11 0.97 0.87 0.88 0.81 0.74 0.80 0.89 0.92 0.95 0.96 0.92 0.95 0.98 1.04 1.15 1.26 1.33 1.26 1.17 1.17 1.25 1.34 1.27 1.12 1.08 0.99 0.94 0.96 0.93 1.03 1.31 1.61 1.82 1.92
1.51 1.43 1.31 1.21 1.07 0.97 0.96 0.98 0.99 1.05 1.03 1.01 1.06 1.11 1.08 1.01 0.98 1.01 1.14 1.19 1.15 1.09 1.08 1.11 1.17 1.31 1.30 1.17 1.09 1.01 0.99 0.94 0.88 0.94 1.11 1.29 1.52 1.77
1.39 1.32 1.28 1.20 1.11 1.11 1.14 1.16 1.15 1.15 1.12 1.13 1.15 1.18 1.18 1.09 1.00 1.00 1.10 1.16 1.10 1.04 1.03 1.04 1.19 1.37 1.40 1.26 0.96 0.87 0.89 0.90 0.92 1.05 1.15 1.13 1.18 1.29
1.31 1.32 1.29 1.26 1.19 1.16 1.19 1.19 1.16 1.15 1.18 1.19 1.20 1.21 1.25 1.24 1.20 1.14 1.12 1.17 1.16 1.12 1.07 1.09 1.17 1.25 1.21 1.06 0.92 0.73 0.77 0.84 0.96 1.06 1.15 1.09 1.04 1.08
1.23 1.28 1.27 1.25 1.22 1.19 1.15 1.16 1.15 1.17 1.17 1.17 1.20 1.23 1.29 1.31 1.32 1.24 1.17 1.14 1.16 1.19 1.18 1.13 1.08 1.05 1.05 1.00 0.94 0.88 0.78 0.89 0.99 1.02 1.07 1.11 1.08 1.05
1.19 1.18 1.15 1.11 1.08 1.08 1.06 1.04 1.03 1.04 1.07 1.13 1.14 1.15 1.21 1.20 1.16 1.13 1.14 1.14 1.15 1.22 1.14 0.98 0.93 1.02 1.20 1.37 1.21 0.97 0.92 0.92 1.02 1.09 1.15 1.24 1.24 1.23
1.11 1.07 1.07 1.04 1.04 1.03 1.03 1.01 1.00 1.01 1.05 1.14 1.15 1.15 1.17 1.16 1.10 1.10 1.15 1.17 1.15 1.15 1.17 1.15 1.24 1.32 1.38 1.36 1.18 1.03 1.06 1.14 1.15 1.16 1.17 1.13 1.14 1.10
1.03 1.00 0.98 0.94 0.92 0.92 0.94 0.96 1.00 1.05 1.07 1.11 1.15 1.17 1.20 1.19 1.14 1.15 1.19 1.24 1.24 1.26 1.39 1.43 1.38 1.35 1.29 1.29 1.26 1.20 1.21 1.34 1.43 1.42 1.33 1.13 0.88 0.74

GEFSNE_prec_meanprecacc_228.txt.gz
Total_Precipitation_Accumulation
1.81 2.02 2.00 1.88 1.96 2.06 2.26 2.42 2.51 2.31 2.17 2.02 1.71 1.56 1.60 1.65 1.82 1.68 1.66 1.50 1.21 1.09 1.05 1.03 1.01 1.07 1.21 1.41 1.59 1.74 1.96 2.15 2.31 2.46 2.58 2.76 2.94 3.08
1.95 2.13 2.09 2.00 2.03 2.07 2.22 2.45 2.69 2.69 2.33 1.91 1.75 1.70 1.79 1.72 1.90 1.65 1.59 1.63 1.38 1.17 1.06 1.07 1.05 1.06 1.10 1.25 1.42 1.56 1.69 1.81 1.97 2.11 2.20 2.28 2.36 2.52
1.84 1.99 2.06 2.16 2.18 2.16 2.28 2.39 2.65 2.90 2.62 2.12 2.00 2.01 2.12 2.09 1.98 1.73 1.54 1.46 1.31 1.26 1.11 1.05 1.04 1.05 1.10 1.17 1.31 1.44 1.53 1.62 1.78 1.92 2.06 2.17 2.20 2.23
1.89 2.01 1.94 2.09 2.24 2.20 2.32 2.34 2.44 2.74 2.66 2.40 2.34 2.29 2.27 2.18 2.16 1.96 1.66 1.51 1.44 1.39 1.18 1.07 1.05 1.03 1.07 1.10 1.20 1.36 1.48 1.55 1.60 1.63 1.69 1.83 2.01 2.17
1.91 1.91 1.88 2.06 2.08 2.18 2.30 2.27 2.25 2.40 2.58 2.52 2.48 2.54 2.51 2.39 2.29 2.12 1.93 1.86 1.58 1.51 1.41 1.30 1.26 1.23 1.22 1.20 1.20 1.27 1.38 1.51 1.62 1.70 1.75 1.82 1.88 1.96
1.92 1.88 1.86 1.90 1.94 2.01 2.12 2.22 2.29 2.40 2.52 2.55 2.59 2.73 2.70 2.73 2.68 2.45 2.33 2.24 1.94 1.60 1.59 1.47 1.40 1.30 1.22 1.15 1.13 1.18 1.28 1.46 1.63 1.72 1.77 1.83 1.87 1.86
1.98 1.89 1.78 1.79 1.85 1.88 1.85 1.96 2.09 2.23 2.25 2.34 2.41 2.63 2.70 2.81 2.80 2.64 2.51 2.49 2.30 1.88 1.72 1.59 1.51 1.39 1.35 1.31 1.22 1.17 1.21 1.33 1.51 1.64 1.69 1.73 1.79 1.81
2.03 1.96 1.82 1.72 1.70 1.66 1.56 1.57 1.65 1.75 1.93 2.14 2.22 2.43 2.62 2.78 2.98 3.04 2.88 2.69 2.54 2.24 2.11 1.97 1.71 1.62 1.45 1.31 1.28 1.11 1.01 1.06 1.15 1.28 1.39 1.52 1.63 1.77
1.91 1.90 1.68 1.53 1.62 1.55 1.57 1.53 1.52 1.61 1.71 1.93 2.12 2.22 2.44 2.64 2.88 3.02 3.01 2.89 2.70 2.53 2.39 2.24 1.91 1.70 1.50 1.37 1.29 1.05 0.90 0.84 0.85 0.92 1.00 1.14 1.27 1.40
1.74 1.78 1.75 1.68 1.68 1.71 1.63 1.51 1.43 1.50 1.59 1.57 1.61 1.77 2.03 2.38 2.56 2.60 2.74 2.76 2.61 2.45 2.38 2.34 2.08 1.87 1.65 1.51 1.41 1.13 0.96 0.87 0.82 0.80 0.82 0.88 1.00 1.12
1.59 1.61 1.63 1.59 1.66 1.54 1.44 1.42 1.42 1.45 1.44 1.42 1.38 1.42 1.56 1.78 2.11 2.25 2.34 2.31 2.20 1.96 1.85 1.92 1.90 1.86 1.78 1.65 1.46 1.29 1.08 0.95 0.89 0.87 0.86 0.87 0.93 1.02
1.59 1.56 1.50 1.38 1.35 1.30 1.28 1.40 1.38 1.37 1.41 1.35 1.26 1.20 1.16 1.31 1.62 1.79 1.87 1.91 1.81 1.76 1.50 1.48 1.53 1.58 1.69 1.56 1.40 1.32 1.24 1.21 1.12 0.99 0.93 0.92 1.02 0.99
1.55 1.54 1.44 1.37 1.20 1.17 1.16 1.19 1.22 1.20 1.27 1.29 1.26 1.24 1.25 1.25 1.30 1.44 1.63 1.75 1.71 1.52 1.39 1.41 1.43 1.45 1.46 1.43 1.36 1.29 1.29 1.34 1.30 1.26 1.20 1.18 1.22 1.19
1.53 1.49 1.48 1.36 1.15 1.09 1.02 1.01 1.03 0.96 0.99 1.10 1.08 1.04 1.05 1.06 1.09 1.23 1.43 1.57 1.65 1.50 1.39 1.44 1.46 1.40 1.36 1.26 1.18 1.10 1.09 1.22 1.38 1.50 1.46 1.47 1.45 1.51
1.39 1.43 1.37 1.23 1.03 0.89 0.88 0.86 0.80 0.77 0.86 0.96 0.97 0.90 0.87 0.92 1.02 1.17 1.31 1.45 1.49 1.42 1.29 1.32 1.36 1.35 1.32 1.21 1.06 0.98 0.99 1.04 1.12 1.32 1.52 1.63 1.62 1.63
1.36 1.32 1.19 1.12 0.98 0.88 0.88 0.81 0.74 0.80 0.89 0.92 0.95 0.96 0.93 0.95 0.98 1.04 1.15 1.26 1.33 1.26 1.18 1.17 1.26 1.35 1.28 1.13 1.09 0.99 0.95 0.97 0.94 1.04 1.32 1.62 1.84 1.94
1.53 1.45 1.33 1.22 1.08 0.98 0.97 0.98 0.99 1.05 1.03 1.01 1.06 1.11 1.08 1.01 0.98 1.01 1.14 1.19 1.15 1.09 1.08 1.12 1.17 1.31 1.31 1.18 1.10 1.01 1.00 0.95 0.89 0.95 1.12 1.30 1.53 1.78
1.41 1.34 1.30 1.22 1.14 1.13 1.16 1.17 1.16 1.17 1.13 1.14 1.16 1.18 1.18 1.09 1.00 1.00 1.10 1.16 1.11 1.05 1.03 1.05 1.19 1.37 1.40 1.26 0.96 0.87 0.89 0.91 0.92 1.06 1.16 1.14 1.20 1.31
1.33 1.33 1.30 1.28 1.22 1.19 1.22 1.22 1.17 1.16 1.20 1.21 1.21 1.22 1.26 1.25 1.21 1.15 1.13 1.18 1.16 1.12 1.08 1.09 1.18 1.26 1.21 1.06 0.92 0.73 0.77 0.85 0.97 1.08 1.17 1.12 1.06 1.11
1.24 1.29 1.28 1.26 1.24 1.21 1.19 1.20 1.20 1.22 1.21 1.19 1.22 1.25 1.31 1.32 1.33 1.25 1.18 1.15 1.18 1.21 1.20 1.15 1.09 1.06 1.06 1.01 0.96 0.90 0.79 0.90 1.01 1.06 1.10 1.14 1.10 1.07
1.20 1.19 1.16 1.11 1.09 1.10 1.09 1.08 1.08 1.10 1.12 1.18 1.18 1.18 1.23 1.22 1.18 1.16 1.17 1.18 1.19 1.26 1.17 1.00 0.96 1.04 1.22 1.39 1.23 0.99 0.94 0.94 1.05 1.12 1.18 1.26 1.26 1.25
1.12 1.08 1.08 1.05 1.05 1.05 1.06 1.05 1.04 1.06 1.10 1.19 1.19 1.18 1.20 1.19 1.13 1.13 1.19 1.21 1.18 1.18 1.20 1.18 1.27 1.35 1.41 1.39 1.21 1.06 1.09 1.16 1.17 1.18 1.18 1.14 1.15 1.11
1.04 1.01 1.00 0.95 0.95 0.95 0.97 0.99 1.03 1.08 1.10 1.15 1.19 1.21 1.24 1.22 1.17 1.18 1.22 1.27 1.27 1.29 1.42 1.46 1.41 1.38 1.32 1.32 1.29 1.22 1.23 1.36 1.44 1.44 1.34 1.15 0.89 0.74

GEFSNE_prec_meanprecacc_234.txt.gz
Total_Precipitation_Accumulation
1.88 2.10 2.06 1.95 2.03 2.15 2.35 2.51 2.58 2.38 2.24 2.09 1.79 1.63 1.68 1.73 1.91 1.75 1.74 1.59 1.29 1.16 1.11 1.08 1.06 1.12 1.25 1.45 1.63 1.78 2.00 2.21 2.38 2.53 2.65 2.82 3.00 3.15
2.00 2.18 2.14 2.05 2.10 2.15 2.30 2.55 2.79 2.77 2.40 1.97 1.80 1.76 1.86 1.79 1.97 1.73 1.67 1.70 1.43 1.21 1.11 1.11 1.09 1.09 1.15 1.30 1.46 1.60 1.74 1.86 2.02 2.16 2.25 2.32 2.41 2.59
1.90 2.04 2.11 2.21 2.24 2.24 2.38 2.50 2.73 2.96 2.68 2.16 2.05 2.06 2.17 2.15 2.04 1.79 1.57 1.49 1.34 1.29 1.14 1.07 1.06 1.08 1.14 1.20 1.33 1.46 1.55 1.64 1.81 1.97 2.12 2.23 2.27 2.30
1.93 2.05 1.98 2.13 2.28 2.26 2.38 2.39 2.49 2.79 2.70 2.45 2.39 2.33 2.32 2.22 2.22 2.02 1.70 1.54 1.47 1.43 1.22 1.10 1.07 1.05 1.09 1.12 1.22 1.38 1.50 1.58 1.63 1.67 1.74 1.89 2.08 2.24
1.95 1.95 1.91 2.10 2.11 2.22 2.35 2.32 2.29 2.44 2.62 2.57 2.52 2.59 2.54 2.42 2.34 2.16 1.98 1.91 1.61 1.53 1.44 1.32 1.29 1.26 1.24 1.22 1.22 1.29 1.40 1.54 1.65 1.74 1.80 1.89 1.97 2.05
1.95 1.91 1.88 1.92 1.96 2.04 2.17 2.26 2.32 2.44 2.56 2.60 2.64 2.76 2.73 2.76 2.72 2.49 2.37 2.29 1.97 1.61 1.60 1.50 1.43 1.34 1.25 1.17 1.15 1.20 1.30 1.49 1.66 1.75 1.82 1.90 1.97 1.99
2.01 1.92 1.79 1.80 1.86 1.90 1.87 1.97 2.11 2.25 2.28 2.37 2.45 2.66 2.73 2.83 2.83 2.68 2.55 2.52 2.33 1.91 1.74 1.61 1.54 1.43 1.39 1.35 1.25 1.20 1.24 1.37 1.56 1.69 1.75 1.81 1.88 1.89
2.04 1.98 1.83 1.73 1.70 1.67 1.57 1.59 1.67 1.78 1.96 2.18 2.26 2.45 2.65 2.81 3.01 3.07 2.91 2.72 2.57 2.28 2.15 2.02 1.76 1.67 1.49 1.35 1.32 1.14 1.04 1.09 1.19 1.31 1.43 1.56 1.67 1.81
1.92 1.92 1.69 1.54 1.62 1.55 1.58 1.54 1.53 1.64 1.73 1.96 2.14 2.24 2.46 2.66 2.90 3.05 3.04 2.92 2.73 2.57 2.43 2.30 1.98 1.77 1.56 1.43 1.34 1.09 0.94 0.87 0.88 0.94 1.02 1.16 1.29 1.42
1.76 1.79 1.76 1.69 1.68 1.72 1.64 1.52 1.44 1.51 1.60 1.57 1.62 1.78 2.04 2.40 2.58 2.62 2.77 2.79 2.66 2.48 2.42 2.39 2.14 1.92 1.71 1.57 1.47 1.17 0.99 0.89 0.83 0.81 0.83 0.89 1.01 1.13
1.60 1.63 1.65 1.60 1.67 1.55 1.45 1.43 1.42 1.46 1.44 1.42 1.38 1.42 1.56 1.78 2.11 2.27 2.36 2.33 2.22 1.98 1.87 1.95 1.93 1.90 1.82 1.69 1.50 1.32 1.10 0.97 0.90 0.88 0.87 0.87 0.93 1.02
1.62 1.59 1.53 1.40 1.37 1.31 1.30 1.41 1.39 1.38 1.42 1.36 1.27 1.20 1.16 1.31 1.62 1.80 1.89 1.93 1.83 1.77 1.51 1.49 1.54 1.59 1.71 1.58 1.41 1.33 1.25 1.22 1.12 0.99 0.93 0.92 1.02 0.99
1.58 1.57 1.47 1.39 1.22 1.18 1.17 1.21 1.23 1.21 1.28 1.31 1.28 1.25 1.26 1.26 1.30 1.44 1.64 1.76 1.73 1.54 1.40 1.42 1.44 1.47 1.48 1.45 1.38 1.30 1.30 1.35 1.31 1.26 1.21 1.18 1.22 1.19
1.55 1.51 1.50 1.38 1.17 1.10 1.03 1.02 1.04 0.97 1.00 1.11 1.10 1.05 1.06 1.06 1.09 1.23 1.43 1.58 1.67 1.53 1.41 1.46 1.48 1.42 1.38 1.27 1.20 1.12 1.11 1.24 1.40 1.52 1.48 1.48 1.45 1.51
1.40 1.44 1.38 1.24 1.04 0.90 0.89 0.86 0.80 0.78 0.87 0.97 0.98 0.91 0.88 0.92 1.02 1.17 1.32 1.46 1.51 1.44 1.32 1.34 1.38 1.37 1.34 1.23 1.08 1.00 1.01 1.05 1.14 1.34 1.54 1.65 1.64 1.64
1.36 1.32 1.20 1.13 0.98 0.89 0.89 0.82 0.75 0.81 0.90 0.93 0.97 0.97 0.94 0.95 0.99 1.05 1.16 1.27 1.35 1.28 1.20 1.19 1.29 1.37 1.31 1.15 1.11 1.01 0.96 0.98 0.95 1.06 1.34 1.64 1.86 1.95
1.53 1.46 1.34 1.23 1.09 0.99 0.98 1.00 1.00 1.06 1.04 1.03 1.08 1.13 1.09 1.02 0.99 1.02 1.15 1.20 1.17 1.10 1.09 1.12 1.19 1.33 1.33 1.20 1.12 1.03 1.01 0.96 0.90 0.96 1.14 1.32 1.56 1.81
1.41 1.34 1.31 1.23 1.15 1.14 1.17 1.19 1.18 1.19 1.15 1.16 1.18 1.21 1.20 1.11 1.02 1.01 1.11 1.17 1.12 1.06 1.04 1.06 1.20 1.38 1.42 1.28 0.98 0.89 0.92 0.94 0.95 1.09 1.19 1.18 1.24 1.34
1.33 1.34 1.31 1.29 1.22 1.20 1.23 1.23 1.19 1.18 1.22 1.23 1.24 1.25 1.29 1.29 1.24 1.17 1.15 1.20 1.18 1.15 1.10 1.12 1.20 1.27 1.24 1.09 0.94 0.75 0.80 0.89 1.02 1.13 1.22 1.17 1.11 1.16
1.24 1.30 1.29 1.27 1.24 1.22 1.19 1.21 1.21 1.23 1.23 1.22 1.26 1.29 1.35 1.36 1.38 1.30 1.22 1.19 1.22 1.25 1.24 1.18 1.12 1.09 1.09 1.05 1.00 0.94 0.84 0.95 1.06 1.11 1.15 1.18 1.14 1.10
1.20 1.20 1.16 1.12 1.10 1.11 1.10 1.09 1.09 1.11 1.13 1.20 1.20 1.21 1.27 1.27 1.24 1.21 1.22 1.22 1.22 1.29 1.20 1.03 0.97 1.06 1.24 1.41 1.25 1.01 0.96 0.96 1.06 1.14 1.20 1.28 1.28 1.27
1.13 1.10 1.09 1.06 1.06 1.06 1.08 1.06 1.06 1.07 1.11 1.20 1.21 1.21 1.24 1.23 1.18 1.18 1.23 1.24 1.21 1.20 1.22 1.19 1.28 1.36 1.42 1.41 1.23 1.07 1.11 1.18 1.19 1.20 1.19 1.15 1.16 1.13
1.05 1.02 1.01 0.96 0.96 0.96 0.98 1.01 1.05 1.10 1.13 1.17 1.21 1.23 1.27 1.25 1.21 1.22 1.26 1.30 1.30 1.32 1.44 1.47 1.42 1.39 1.33 1.33 1.31 1.24 1.25 1.37 1.46 1.45 1.36 1.16 0.91 0.75

GEFSNE_prec_meanprecacc_240.txt.gz
Total_Precipitation_Accumulation
1.90 2.11 2.07 1.96 2.05 2.16 2.37 2.53 2.61 2.40 2.26 2.12 1.82 1.66 1.70 1.76 1.97 1.81 1.82 1.66 1.35 1.23 1.16 1.12 1.10 1.17 1.31 1.51 1.68 1.83 2.05 2.25 2.43 2.59 2.74 2.93 3.13 3.31
2.01 2.19 2.15 2.06 2.12 2.17 2.32 2.58 2.81 2.79 2.43 2.00 1.83 1.77 1.88 1.81 2.01 1.78 1.72 1.75 1.48 1.25 1.14 1.14 1.12 1.13 1.19 1.34 1.50 1.64 1.77 1.90 2.08 2.22 2.32 2.39 2.50 2.70
1.91 2.05 2.11 2.22 2.26 2.27 2.40 2.52 2.75 2.98 2.69 2.18 2.06 2.07 2.19 2.17 2.06 1.83 1.62 1.54 1.38 1.32 1.16 1.09 1.09 1.12 1.18 1.24 1.37 1.50 1.58 1.67 1.84 2.01 2.16 2.27 2.31 2.35
1.94 2.07 1.99 2.15 2.31 2.29 2.40 2.41 2.51 2.82 2.73 2.47 2.41 2.36 2.34 2.25 2.24 2.06 1.73 1.57 1.50 1.46 1.24 1.12 1.11 1.10 1.13 1.16 1.26 1.42 1.54 1.61 1.66 1.70 1.77 1.91 2.11 2.27
1.96 1.96 1.93 2.11 2.14 2.25 2.38 2.34 2.32 2.48 2.65 2.59 2.55 2.62 2.59 2.47 2.38 2.19 2.00 1.93 1.63 1.55 1.46 1.35 1.32 1.29 1.28 1.27 1.27 1.34 1.45 1.59 1.70 1.78 1.84 1.93 2.00 2.08
1.97 1.92 1.89 1.93 1.98 2.06 2.18 2.27 2.34 2.46 2.59 2.62 2.66 2.79 2.76 2.80 2.75 2.53 2.40 2.31 1.99 1.62 1.62 1.52 1.45 1.36 1.27 1.20 1.18 1.24 1.35 1.54 1.71 1.80 1.86 1.93 1.99 2.01
2.02 1.93 1.80 1.81 1.87 1.91 1.88 1.99 2.13 2.27 2.30 2.39 2.47 2.68 2.75 2.85 2.84 2.69 2.57 2.54 2.35 1.92 1.75 1.62 1.55 1.43 1.39 1.36 1.27 1.22 1.26 1.38 1.57 1.71 1.77 1.83 1.90 1.93
2.06 1.98 1.83 1.74 1.72 1.68 1.58 1.60 1.68 1.79 1.98 2.21 2.29 2.48 2.67 2.82 3.02 3.08 2.92 2.73 2.58 2.29 2.16 2.02 1.77 1.68 1.50 1.36 1.34 1.16 1.06 1.11 1.21 1.34 1.46 1.59 1.71 1.85
1.94 1.92 1.70 1.55 1.63 1.55 1.58 1.54 1.54 1.65 1.75 1.97 2.15 2.25 2.47 2.67 2.91 3.06 3.05 2.93 2.74 2.57 2.44 2.31 1.98 1.78 1.58 1.45 1.37 1.12 0.98 0.91 0.92 0.99 1.08 1.21 1.33 1.45
1.77 1.80 1.77 1.70 1.69 1.72 1.64 1.52 1.44 1.51 1.61 1.58 1.63 1.79 2.05 2.41 2.59 2.64 2.79 2.81 2.67 2.50 2.42 2.40 2.14 1.93 1.71 1.58 1.51 1.22 1.05 0.96 0.91 0.88 0.89 0.94 1.05 1.16
1.63 1.64 1.65 1.61 1.69 1.57 1.46 1.44 1.43 1.46 1.45 1.42 1.38 1.42 1.56 1.78 2.12 2.28 2.38 2.35 2.24 2.00 1.88 1.96 1.94 1.90 1.82 1.70 1.52 1.37 1.17 1.03 0.96 0.93 0.91 0.90 0.95 1.04
1.64 1.60 1.54 1.41 1.39 1.33 1.31 1.43 1.40 1.39 1.43 1.37 1.27 1.21 1.16 1.31 1.63 1.81 1.90 1.94 1.84 1.78 1.52 1.50 1.54 1.59 1.71 1.58 1.42 1.35 1.27 1.24 1.13 1.00 0.94 0.92 1.03 0.99
1.60 1.58 1.48 1.40 1.23 1.19 1.19 1.22 1.25 1.22 1.29 1.32 1.29 1.25 1.26 1.26 1.30 1.44 1.65 1.77 1.74 1.55 1.41 1.43 1.45 1.47 1.49 1.46 1.39 1.31 1.31 1.35 1.32 1.27 1.21 1.19 1.22 1.19
1.55 1.51 1.50 1.38 1.17 1.10 1.03 1.03 1.05 0.98 1.01 1.13 1.12 1.07 1.07 1.06 1.10 1.24 1.44 1.59 1.68 1.53 1.43 1.47 1.48 1.43 1.39 1.28 1.20 1.13 1.12 1.25 1.41 1.53 1.49 1.49 1.46 1.52
1.40 1.44 1.38 1.24 1.04 0.90 0.89 0.87 0.81 0.78 0.88 0.98 1.00 0.94 0.91 0.94 1.03 1.17 1.32 1.46 1.51 1.45 1.33 1.36 1.40 1.39 1.36 1.25 1.09 1.01 1.03 1.07 1.17 1.37 1.58 1.68 1.66 1.67
1.36 1.32 1.20 1.13 0.99 0.89 0.89 0.82 0.75 0.81 0.91 0.94 0.98 0.99 0.96 0.98 1.01 1.06 1.16 1.28 1.35 1.28 1.20 1.20 1.29 1.39 1.32 1.17 1.12 1.03 0.98 1.00 0.98 1.09 1.39 1.69 1.91 2.00
1.53 1.46 1.34 1.23 1.09 0.99 0.98 1.00 1.01 1.06 1.04 1.03 1.08 1.13 1.10 1.04 1.01 1.04 1.17 1.21 1.18 1.11 1.10 1.13 1.20 1.34 1.34 1.21 1.13 1.04 1.02 0.97 0.92 0.99 1.17 1.36 1.59 1.85
1.41 1.34 1.31 1.23 1.15 1.14 1.18 1.19 1.18 1.19 1.16 1.17 1.18 1.21 1.21 1.12 1.03 1.03 1.14 1.20 1.15 1.08 1.06 1.07 1.22 1.40 1.44 1.30 0.99 0.90 0.93 0.94 0.95 1.09 1.20 1.20 1.27 1.38
1.34 1.34 1.32 1.29 1.23 1.20 1.23 1.23 1.19 1.18 1.23 1.24 1.24 1.25 1.30 1.30 1.26 1.19 1.18 1.23 1.22 1.18 1.12 1.14 1.23 1.30 1.26 1.11 0.95 0.76 0.81 0.90 1.03 1.14 1.24 1.19 1.14 1.19
1.25 1.30 1.29 1.27 1.25 1.22 1.20 1.22 1.22 1.24 1.24 1.23 1.26 1.30 1.36 1.38 1.40 1.33 1.25 1.23 1.26 1.30 1.28 1.23 1.17 1.13 1.13 1.09 1.03 0.96 0.85 0.96 1.07 1.12 1.17 1.20 1.16 1.13
1.21 1.20 1.17 1.13 1.11 1.11 1.11 1.10 1.10 1.12 1.15 1.21 1.21 1.22 1.29 1.29 1.25 1.24 1.25 1.26 1.27 1.35 1.26 1.08 1.02 1.10 1.28 1.45 1.29 1.03 0.98 0.97 1.07 1.15 1.21 1.30 1.29 1.29
1.14 1.10 1.10 1.07 1.07 1.07 1.08 1.07 1.06 1.08 1.12 1.22 1.23 1.23 1.26 1.25 1.20 1.20 1.26 1.28 1.25 1.25 1.27 1.24 1.32 1.41 1.46 1.44 1.25 1.09 1.12 1.20 1.20 1.21 1.21 1.17 1.17 1.14
1.07 1.04 1.02 0.98 0.97 0.97 0.99 1.01 1.05 1.11 1.14 1.19 1.23 1.26 1.30 1.29 1.24 1.24 1.28 1.33 1.33 1.36 1.49 1.52 1.47 1.44 1.38 1.37 1.34 1.27 1.26 1.39 1.47 1.47 1.37 1.18 0.92 0.76

GEFSNE_prec_meanprecacc_246.txt.gz
Total_Precipitation_Accumulation
1.93 2.15 2.11 1.98 2.07 2.19 2.39 2.55 2.64 2.43 2.28 2.13 1.84 1.68 1.72 1.78 2.00 1.85 1.85 1.69 1.38 1.26 1.20 1.16 1.13 1.20 1.34 1.55 1.73 1.89 2.11 2.30 2.48 2.64 2.79 2.99 3.20 3.42
2.03 2.21 2.18 2.09 2.14 2.18 2.33 2.59 2.83 2.81 2.45 2.01 1.84 1.79 1.89 1.84 2.05 1.81 1.75 1.77 1.50 1.28 1.17 1.18 1.16 1.17 1.22 1.38 1.55 1.69 1.83 1.95 2.11 2.25 2.36 2.44 2.55 2.77
1.93 2.08 2.14 2.25 2.29 2.29 2.41 2.54 2.77 3.00 2.70 2.19 2.08 2.08 2.20 2.19 2.09 1.86 1.64 1.56 1.40 1.34 1.19 1.12 1.12 1.16 1.21 1.28 1.41 1.54 1.62 1.71 1.88 2.05 2.20 2.32 2.36 2.41
1.96 2.09 2.00 2.17 2.33 2.31 2.41 2.42 2.52 2.83 2.74 2.48 2.42 2.38 2.36 2.28 2.27 2.09 1.76 1.60 1.52 1.50 1.28 1.15 1.13 1.12 1.15 1.18 1.28 1.45 1.57 1.65 1.70 1.74 1.81 1.95 2.15 2.31
1.98 1.98 1.95 2.14 2.15 2.26 2.38 2.35 2.33 2.49 2.66 2.61 2.57 2.65 2.61 2.49 2.40 2.22 2.02 1.95 1.66 1.58 1.50 1.39 1.36 1.32 1.30 1.29 1.29 1.36 1.48 1.62 1.73 1.81 1.88 1.97 2.04 2.12
2.01 1.96 1.92 1.95 1.99 2.08 2.20 2.28 2.35 2.48 2.61 2.65 2.69 2.81 2.78 2.81 2.77 2.54 2.41 2.32 1.99 1.64 1.64 1.55 1.49 1.38 1.29 1.22 1.19 1.25 1.36 1.55 1.73 1.82 1.89 1.97 2.03 2.04
2.05 1.96 1.83 1.84 1.90 1.92 1.89 2.00 2.14 2.28 2.32 2.41 2.51 2.72 2.78 2.87 2.85 2.70 2.57 2.55 2.36 1.93 1.76 1.64 1.58 1.46 1.41 1.37 1.27 1.23 1.26 1.39 1.57 1.71 1.78 1.85 1.93 1.95
2.07 2.01 1.86 1.76 1.73 1.69 1.60 1.62 1.70 1.81 2.00 2.23 2.31 2.51 2.70 2.85 3.03 3.09 2.92 2.74 2.59 2.30 2.16 2.03 1.77 1.69 1.51 1.37 1.35 1.17 1.06 1.11 1.21 1.34 1.47 1.60 1.71 1.86
1.96 1.95 1.72 1.57 1.64 1.56 1.59 1.55 1.55 1.66 1.77 1.99 2.17 2.26 2.49 2.69 2.93 3.07 3.06 2.94 2.74 2.58 2.44 2.31 1.99 1.78 1.58 1.46 1.38 1.13 0.98 0.91 0.93 0.99 1.08 1.21 1.34 1.46
1.79 1.82 1.79 1.71 1.71 1.74 1.65 1.54 1.46 1.53 1.62 1.59 1.63 1.79 2.06 2.42 2.60 2.65 2.80 2.83 2.69 2.51 2.43 2.40 2.14 1.93 1.71 1.59 1.51 1.23 1.06 0.96 0.92 0.89 0.91 0.97 1.08 1.20
1.64 1.66 1.67 1.63 1.71 1.59 1.48 1.45 1.44 1.48 1.46 1.43 1.39 1.43 1.57 1.80 2.13 2.29 2.39 2.36 2.26 2.02 1.89 1.96 1.94 1.90 1.83 1.70 1.53 1.37 1.17 1.04 0.96 0.94 0.93 0.93 0.99 1.08
1.65 1.61 1.55 1.43 1.41 1.35 1.32 1.43 1.41 1.40 1.43 1.37 1.28 1.21 1.17 1.32 1.64 1.82 1.91 1.95 1.85 1.79 1.53 1.51 1.54 1.60 1.71 1.58 1.42 1.35 1.27 1.24 1.14 1.01 0.95 0.94 1.05 1.01
1.61 1.59 1.49 1.42 1.24 1.20 1.19 1.22 1.25 1.22 1.29 1.33 1.30 1.27 1.28 1.28 1.32 1.46 1.66 1.78 1.75 1.56 1.42 1.44 1.45 1.47 1.49 1.46 1.39 1.31 1.31 1.36 1.32 1.27 1.22 1.19 1.23 1.20
1.56 1.52 1.51 1.39 1.17 1.10 1.03 1.03 1.05 0.98 1.01 1.13 1.12 1.08 1.09 1.09 1.13 1.27 1.47 1.62 1.70 1.56 1.46 1.49 1.50 1.44 1.40 1.29 1.21 1.13 1.12 1.25 1.41 1.54 1.50 1.51 1.47 1.53
1.40 1.45 1.38 1.25 1.05 0.90 0.89 0.87 0.81 0.79 0.88 0.99 1.00 0.94 0.92 0.96 1.06 1.21 1.36 1.51 1.55 1.48 1.35 1.37 1.41 1.40 1.38 1.27 1.11 1.03 1.04 1.08 1.17 1.37 1.59 1.69 1.68 1.69
1.37 1.33 1.20 1.13 0.99 0.89 0.89 0.82 0.75 0.82 0.91 0.94 0.99 1.00 0.97 0.99 1.02 1.08 1.19 1.31 1.39 1.31 1.22 1.22 1.31 1.41 1.34 1.19 1.14 1.04 0.99 1.01 0.98 1.10 1.40 1.70 1.93 2.02
1.54 1.46 1.34 1.23 1.09 0.99 0.98 1.00 1.01 1.07 1.05 1.03 1.09 1.14 1.11 1.04 1.01 1.05 1.18 1.22 1.19 1.12 1.12 1.16 1.22 1.37 1.36 1.23 1.15 1.06 1.04 0.99 0.93 1.00 1.18 1.37 1.60 1.86
1.42 1.35 1.31 1.24 1.15 1.14 1.18 1.20 1.18 1.19 1.16 1.17 1.19 1.22 1.22 1.13 1.04 1.04 1.15 1.22 1.17 1.11 1.09 1.11 1.26 1.44 1.46 1.32 1.01 0.92 0.95 0.96 0.98 1.11 1.21 1.21 1.28 1.39
1.34 1.35 1.32 1.30 1.23 1.21 1.23 1.24 1.19 1.19 1.23 1.24 1.25 1.26 1.31 1.31 1.27 1.21 1.20 1.27 1.26 1.23 1.17 1.19 1.28 1.36 1.31 1.15 0.99 0.79 0.84 0.93 1.05 1.17 1.26 1.21 1.16 1.20
1.25 1.30 1.30 1.28 1.26 1.23 1.21 1.22 1.22 1.24 1.24 1.23 1.27 1.30 1.37 1.39 1.42 1.36 1.29 1.27 1.30 1.34 1.33 1.28 1.21 1.17 1.18 1.14 1.08 1.01 0.90 1.00 1.11 1.16 1.19 1.22 1.19 1.16
1.22 1.22 1.19 1.14 1.12 1.13 1.12 1.11 1.11 1.12 1.15 1.22 1.22 1.23 1.31 1.31 1.28 1.26 1.27 1.28 1.30 1.38 1.30 1.14 1.07 1.15 1.33 1.49 1.33 1.07 1.01 1.00 1.10 1.17 1.23 1.32 1.32 1.32
1.16 1.13 1.12 1.09 1.09 1.09 1.10 1.09 1.08 1.09 1.14 1.23 1.25 1.26 1.29 1.28 1.23 1.22 1.27 1.30 1.27 1.27 1.29 1.27 1.36 1.45 1.50 1.48 1.29 1.12 1.15 1.22 1.23 1.23 1.24 1.20 1.20 1.16
1.10 1.07 1.05 1.01 1.00 1.00 1.02 1.04 1.08 1.13 1.16 1.21 1.26 1.29 1.32 1.31 1.25 1.26 1.30 1.34 1.36 1.39 1.51 1.55 1.51 1.48 1.41 1.40 1.37 1.29 1.28 1.40 1.49 1.49 1.40 1.21 0.94 0.77

GEFSNE_prec_meanprecacc_252.txt.gz
Total_Precipitation_Accumulation
1.96 2.18 2.14 2.01 2.10 2.22 2.42 2.60 2.69 2.47 2.31 2.15 1.86 1.70 1.73 1.80 2.03 1.87 1.87 1.71 1.39 1.28 1.22 1.17 1.14 1.22 1.36 1.57 1.76 1.92 2.15 2.34 2.50 2.67 2.82 3.02 3.24 3.47
2.07 2.25 2.21 2.12 2.17 2.22 2.36 2.62 2.87 2.85 2.47 2.03 1.86 1.80 1.90 1.85 2.06 1.83 1.77 1.80 1.52 1.29 1.18 1.18 1.17 1.18 1.24 1.40 1.57 1.72 1.85 1.97 2.13 2.28 2.38 2.46 2.58 2.80
1.98 2.13 2.19 2.30 2.35 2.34 2.45 2.57 2.81 3.04 2.73 2.21 2.10 2.10 2.21 2.20 2.10 1.87 1.66 1.58 1.42 1.37 1.20 1.14 1.13 1.17 1.23 1.29 1.42 1.56 1.64 1.73 1.91 2.07 2.22 2.34 2.37 2.43
2.01 2.17 2.08 2.23 2.39 2.36 2.46 2.46 2.56 2.87 2.77 2.51 2.45 2.40 2.38 2.29 2.29 2.10 1.77 1.61 1.53 1.52 1.30 1.17 1.15 1.14 1.17 1.19 1.29 1.46 1.58 1.66 1.71 1.75 1.82 1.96 2.16 2.33
2.02 2.03 2.00 2.19 2.20 2.29 2.42 2.38 2.37 2.53 2.70 2.64 2.60 2.67 2.63 2.52 2.44 2.25 2.05 1.97 1.67 1.60 1.51 1.41 1.38 1.35 1.32 1.31 1.31 1.38 1.49 1.63 1.74 1.82 1.88 1.97 2.05 2.13
2.03 1.98 1.95 1.98 2.01 2.09 2.21 2.31 2.38 2.51 2.64 2.67 2.72 2.85 2.82 2.86 2.83 2.61 2.47 2.37 2.03 1.67 1.67 1.57 1.50 1.40 1.30 1.23 1.21 1.26 1.38 1.56 1.74 1.82 1.89 1.97 2.03 2.04
2.06 1.97 1.84 1.86 1.92 1.94 1.90 2.01 2.16 2.31 2.34 2.44 2.53 2.74 2.81 2.91 2.90 2.75 2.63 2.61 2.41 1.97 1.80 1.67 1.59 1.48 1.45 1.40 1.30 1.24 1.27 1.39 1.58 1.71 1.78 1.85 1.93 1.95
2.08 2.02 1.87 1.78 1.75 1.70 1.61 1.62 1.71 1.83 2.02 2.25 2.33 2.53 2.72 2.88 3.07 3.12 2.95 2.77 2.63 2.34 2.20 2.06 1.80 1.71 1.54 1.40 1.37 1.18 1.07 1.12 1.21 1.34 1.47 1.60 1.71 1.86
1.97 1.96 1.73 1.57 1.65 1.57 1.59 1.55 1.55 1.67 1.78 2.02 2.20 2.28 2.51 2.71 2.96 3.11 3.09 2.96 2.77 2.61 2.47 2.34 2.01 1.80 1.60 1.48 1.40 1.13 0.98 0.91 0.93 1.00 1.08 1.22 1.34 1.47
1.79 1.83 1.79 1.72 1.71 1.75 1.66 1.54 1.47 1.54 1.63 1.60 1.65 1.81 2.08 2.44 2.62 2.67 2.82 2.86 2.72 2.54 2.45 2.42 2.16 1.94 1.73 1.60 1.53 1.23 1.06 0.97 0.92 0.90 0.91 0.97 1.09 1.20
1.64 1.66 1.68 1.63 1.72 1.60 1.49 1.47 1.46 1.49 1.47 1.44 1.40 1.44 1.59 1.81 2.14 2.30 2.41 2.38 2.28 2.03 1.91 1.98 1.95 1.91 1.84 1.71 1.54 1.38 1.18 1.04 0.97 0.94 0.93 0.93 0.99 1.08
1.65 1.61 1.55 1.43 1.41 1.36 1.34 1.45 1.44 1.42 1.44 1.38 1.29 1.22 1.18 1.33 1.65 1.83 1.92 1.97 1.87 1.81 1.55 1.53 1.57 1.62 1.74 1.61 1.44 1.36 1.28 1.24 1.14 1.01 0.95 0.94 1.05 1.01
1.62 1.60 1.50 1.43 1.25 1.21 1.20 1.23 1.26 1.23 1.30 1.34 1.30 1.27 1.29 1.29 1.33 1.48 1.69 1.82 1.79 1.61 1.47 1.48 1.49 1.51 1.52 1.49 1.41 1.33 1.32 1.36 1.33 1.28 1.22 1.20 1.23 1.20
1.57 1.53 1.52 1.40 1.19 1.11 1.04 1.03 1.05 0.98 1.01 1.13 1.13 1.09 1.10 1.10 1.14 1.28 1.49 1.65 1.75 1.60 1.50 1.53 1.52 1.46 1.42 1.32 1.24 1.15 1.14 1.26 1.42 1.54 1.51 1.51 1.48 1.54
1.41 1.46 1.40 1.26 1.06 0.91 0.90 0.88 0.81 0.79 0.88 0.99 1.01 0.94 0.92 0.97 1.07 1.22 1.37 1.53 1.58 1.51 1.39 1.41 1.45 1.43 1.42 1.31 1.15 1.07 1.06 1.09 1.18 1.38 1.60 1.70 1.69 1.70
1.37 1.33 1.21 1.14 0.99 0.90 0.90 0.83 0.75 0.82 0.92 0.95 0.99 1.00 0.97 1.00 1.03 1.09 1.20 1.33 1.41 1.34 1.25 1.25 1.36 1.48 1.42 1.25 1.20 1.09 1.03 1.03 1.00 1.12 1.42 1.72 1.93 2.03
1.55 1.46 1.34 1.24 1.09 0.99 0.99 1.00 1.01 1.07 1.06 1.04 1.10 1.15 1.12 1.06 1.03 1.06 1.19 1.24 1.21 1.15 1.16 1.21 1.28 1.43 1.43 1.31 1.22 1.12 1.09 1.02 0.96 1.03 1.21 1.39 1.62 1.87
1.43 1.35 1.31 1.24 1.16 1.15 1.18 1.20 1.19 1.20 1.17 1.18 1.20 1.23 1.22 1.14 1.05 1.05 1.16 1.24 1.20 1.14 1.13 1.15 1.31 1.50 1.53 1.38 1.07 0.98 1.02 1.01 1.01 1.14 1.25 1.25 1.31 1.41
1.35 1.36 1.33 1.31 1.24 1.22 1.24 1.24 1.20 1.19 1.24 1.25 1.26 1.27 1.32 1.32 1.29 1.23 1.22 1.30 1.30 1.26 1.21 1.23 1.33 1.42 1.38 1.21 1.05 0.85 0.90 1.00 1.11 1.20 1.29 1.25 1.20 1.24
1.27 1.32 1.31 1.29 1.26 1.24 1.21 1.23 1.23 1.26 1.26 1.25 1.29 1.33 1.39 1.41 1.44 1.38 1.32 1.31 1.34 1.37 1.37 1.32 1.26 1.23 1.24 1.20 1.14 1.08 0.96 1.06 1.17 1.21 1.24 1.26 1.23 1.20
1.24 1.23 1.20 1.16 1.14 1.14 1.13 1.12 1.12 1.14 1.17 1.24 1.25 1.27 1.34 1.34 1.31 1.29 1.30 1.31 1.32 1.41 1.37 1.21 1.13 1.20 1.37 1.53 1.37 1.12 1.07 1.06 1.15 1.22 1.28 1.37 1.36 1.36
1.18 1.15 1.15 1.12 1.11 1.11 1.12 1.10 1.09 1.11 1.16 1.25 1.27 1.28 1.32 1.30 1.25 1.25 1.31 1.34 1.30 1.31 1.34 1.32 1.40 1.50 1.55 1.54 1.34 1.17 1.19 1.26 1.27 1.28 1.28 1.24 1.23 1.19
1.13 1.10 1.08 1.03 1.02 1.02 1.04 1.05 1.09 1.15 1.18 1.23 1.28 1.31 1.35 1.33 1.28 1.29 1.34 1.39 1.40 1.43 1.55 1.60 1.57 1.53 1.46 1.46 1.43 1.35 1.33 1.44 1.52 1.53 1.44 1.24 0.96 0.79

GEFSNE_prec_meanprecacc_258.txt.gz
Total_Precipitation_Accumulation
2.00 2.23 2.20 2.07 2.16 2.28 2.50 2.69 2.80 2.58 2.41 2.22 1.91 1.74 1.76 1.83 2.06 1.90 1.89 1.73 1.41 1.29 1.23 1.18 1.15 1.23 1.38 1.58 1.77 1.95 2.20 2.38 2.55 2.71 2.85 3.04 3.26 3.51
2.11 2.31 2.27 2.18 2.24 2.30 2.45 2.73 3.00 2.96 2.54 2.07 1.91 1.83 1.92 1.86 2.09 1.85 1.79 1.82 1.54 1.31 1.20 1.19 1.17 1.19 1.25 1.40 1.58 1.73 1.88 2.01 2.17 2.31 2.40 2.48 2.59 2.82
2.02 2.18 2.24 2.36 2.42 2.42 2.53 2.66 2.91 3.14 2.82 2.27 2.14 2.13 2.24 2.22 2.13 1.90 1.68 1.59 1.43 1.37 1.21 1.15 1.14 1.18 1.23 1.30 1.43 1.57 1.66 1.76 1.94 2.10 2.23 2.35 2.39 2.44
2.04 2.20 2.11 2.27 2.45 2.41 2.51 2.52 2.63 2.96 2.84 2.56 2.50 2.44 2.42 2.33 2.33 2.14 1.81 1.63 1.55 1.53 1.31 1.18 1.16 1.15 1.18 1.20 1.31 1.48 1.61 1.68 1.73 1.77 1.83 1.96 2.16 2.33
2.04 2.06 2.03 2.22 2.22 2.32 2.45 2.42 2.42 2.59 2.76 2.68 2.64 2.72 2.67 2.56 2.47 2.29 2.10 2.03 1.71 1.62 1.53 1.43 1.40 1.37 1.34 1.32 1.32 1.39 1.51 1.64 1.75 1.82 1.89 1.98 2.05 2.13
2.05 2.00 1.97 2.00 2.03 2.11 2.23 2.35 2.43 2.56 2.69 2.73 2.76 2.88 2.85 2.89 2.87 2.64 2.52 2.42 2.08 1.69 1.69 1.60 1.53 1.42 1.33 1.25 1.22 1.28 1.39 1.58 1.75 1.83 1.89 1.97 2.03 2.04
2.07 1.98 1.85 1.87 1.93 1.96 1.92 2.04 2.19 2.34 2.39 2.48 2.57 2.77 2.84 2.94 2.93 2.77 2.65 2.64 2.45 2.00 1.84 1.71 1.64 1.52 1.48 1.43 1.32 1.26 1.29 1.41 1.59 1.73 1.79 1.85 1.93 1.96
2.09 2.03 1.89 1.79 1.75 1.70 1.61 1.63 1.73 1.86 2.05 2.28 2.36 2.56 2.75 2.90 3.10 3.14 2.98 2.79 2.66 2.37 2.24 2.10 1.84 1.76 1.59 1.44 1.41 1.21 1.10 1.13 1.22 1.35 1.48 1.62 1.73 1.88
1.98 1.97 1.74 1.58 1.66 1.58 1.60 1.56 1.56 1.68 1.80 2.04 2.22 2.30 2.53 2.74 2.98 3.13 3.12 2.99 2.79 2.63 2.50 2.38 2.05 1.84 1.65 1.52 1.44 1.17 1.01 0.94 0.94 1.01 1.09 1.23 1.35 1.49
1.80 1.83 1.80 1.72 1.72 1.76 1.67 1.55 1.47 1.54 1.64 1.60 1.66 1.83 2.10 2.46 2.64 2.69 2.85 2.87 2.73 2.55 2.48 2.44 2.19 1.98 1.76 1.64 1.56 1.26 1.08 0.99 0.94 0.90 0.92 0.98 1.10 1.22
1.65 1.66 1.68 1.64 1.72 1.60 1.50 1.48 1.47 1.50 1.48 1.45 1.40 1.45 1.60 1.82 2.16 2.32 2.42 2.39 2.29 2.05 1.93 2.00 1.98 1.94 1.88 1.75 1.58 1.43 1.21 1.06 0.98 0.95 0.94 0.94 1.00 1.08
1.66 1.62 1.56 1.44 1.42 1.37 1.35 1.46 1.45 1.43 1.46 1.39 1.30 1.23 1.19 1.34 1.67 1.85 1.94 1.99 1.89 1.84 1.58 1.57 1.61 1.67 1.79 1.66 1.49 1.41 1.31 1.27 1.16 1.03 0.97 0.96 1.06 1.02
1.62 1.60 1.51 1.45 1.27 1.23 1.21 1.24 1.27 1.24 1.31 1.36 1.32 1.29 1.30 1.30 1.35 1.50 1.71 1.85 1.82 1.63 1.49 1.51 1.53 1.56 1.57 1.54 1.46 1.37 1.36 1.40 1.36 1.31 1.24 1.21 1.25 1.21
1.58 1.53 1.53 1.41 1.20 1.12 1.05 1.04 1.06 1.00 1.02 1.15 1.15 1.11 1.12 1.11 1.15 1.30 1.52 1.68 1.77 1.62 1.51 1.55 1.55 1.50 1.45 1.34 1.26 1.19 1.18 1.30 1.45 1.56 1.52 1.52 1.49 1.55
1.41 1.46 1.40 1.26 1.06 0.92 0.91 0.89 0.82 0.80 0.90 1.01 1.03 0.97 0.95 0.99 1.08 1.24 1.39 1.56 1.60 1.52 1.39 1.42 1.48 1.46 1.45 1.34 1.19 1.10 1.10 1.13 1.21 1.42 1.63 1.72 1.70 1.71
1.38 1.34 1.21 1.14 1.00 0.90 0.90 0.83 0.76 0.83 0.93 0.97 1.02 1.03 0.99 1.01 1.05 1.11 1.22 1.35 1.44 1.36 1.27 1.27 1.39 1.51 1.46 1.30 1.25 1.13 1.08 1.08 1.04 1.16 1.46 1.76 1.97 2.05
1.56 1.47 1.35 1.24 1.10 1.00 0.99 1.01 1.02 1.08 1.08 1.07 1.12 1.17 1.13 1.07 1.04 1.07 1.22 1.26 1.24 1.17 1.18 1.24 1.32 1.47 1.49 1.37 1.30 1.18 1.15 1.09 1.01 1.08 1.27 1.45 1.67 1.92
1.43 1.36 1.32 1.25 1.17 1.16 1.20 1.21 1.20 1.21 1.19 1.19 1.21 1.24 1.23 1.15 1.06 1.06 1.18 1.25 1.22 1.17 1.16 1.19 1.36 1.57 1.61 1.44 1.13 1.05 1.10 1.08 1.06 1.20 1.32 1.32 1.38 1.48
1.36 1.37 1.34 1.32 1.25 1.23 1.25 1.25 1.21 1.21 1.25 1.26 1.27 1.27 1.32 1.33 1.29 1.24 1.23 1.31 1.32 1.29 1.23 1.26 1.37 1.49 1.46 1.28 1.10 0.89 0.99 1.11 1.20 1.29 1.37 1.33 1.28 1.31
1.28 1.33 1.31 1.30 1.27 1.25 1.24 1.26 1.26 1.27 1.27 1.26 1.31 1.34 1.41 1.43 1.46 1.40 1.34 1.34 1.37 1.42 1.41 1.34 1.30 1.30 1.33 1.30 1.20 1.12 1.02 1.14 1.27 1.31 1.32 1.32 1.29 1.26
1.25 1.23 1.20 1.17 1.15 1.17 1.16 1.15 1.15 1.16 1.19 1.26 1.27 1.29 1.36 1.36 1.34 1.32 1.33 1.35 1.37 1.47 1.43 1.26 1.18 1.27 1.45 1.61 1.43 1.17 1.12 1.14 1.22 1.28 1.34 1.42 1.43 1.43
1.20 1.17 1.17 1.14 1.14 1.14 1.16 1.13 1.12 1.14 1.19 1.29 1.30 1.31 1.35 1.34 1.29 1.30 1.35 1.39 1.36 1.37 1.40 1.38 1.46 1.55 1.60 1.59 1.39 1.23 1.25 1.32 1.33 1.34 1.34 1.29 1.28 1.25
1.16 1.13 1.11 1.07 1.06 1.07 1.08 1.10 1.13 1.19 1.23 1.28 1.32 1.35 1.38 1.36 1.32 1.34 1.40 1.45 1.47 1.49 1.61 1.66 1.64 1.61 1.54 1.53 1.50 1.41 1.38 1.50 1.59 1.59 1.49 1.28 1.00 0.83

GEFSNE_prec_meanprecacc_264.txt.gz
Total_Precipitation_Accumulation
2.03 2.25 2.20 2.08 2.17 2.29 2.52 2.73 2.86 2.64 2.47 2.27 1.95 1.77 1.77 1.84 2.09 1.93 1.93 1.78 1.45 1.33 1.26 1.21 1.17 1.25 1.40 1.60 1.79 1.97 2.23 2.41 2.57 2.73 2.86 3.07 3.31 3.58
2.12 2.32 2.27 2.18 2.25 2.30 2.46 2.76 3.05 3.03 2.61 2.13 1.97 1.89 1.97 1.91 2.13 1.88 1.81 1.85 1.56 1.32 1.21 1.21 1.19 1.20 1.27 1.42 1.59 1.75 1.90 2.04 2.20 2.33 2.42 2.50 2.61 2.85
2.03 2.18 2.24 2.36 2.42 2.43 2.54 2.67 2.94 3.17 2.84 2.29 2.17 2.16 2.29 2.27 2.18 1.93 1.70 1.61 1.44 1.39 1.23 1.16 1.16 1.19 1.25 1.31 1.44 1.59 1.68 1.78 1.97 2.13 2.27 2.38 2.40 2.46
2.05 2.21 2.12 2.28 2.46 2.41 2.52 2.53 2.64 2.98 2.86 2.58 2.52 2.46 2.44 2.34 2.34 2.17 1.84 1.66 1.58 1.56 1.34 1.22 1.19 1.17 1.19 1.22 1.32 1.49 1.63 1.71 1.77 1.80 1.86 1.99 2.18 2.34
2.05 2.06 2.03 2.23 2.23 2.32 2.45 2.43 2.43 2.60 2.77 2.70 2.65 2.73 2.69 2.57 2.49 2.32 2.14 2.07 1.76 1.67 1.58 1.47 1.44 1.40 1.36 1.34 1.35 1.41 1.53 1.67 1.78 1.86 1.92 2.00 2.07 2.15
2.05 2.01 1.97 2.00 2.03 2.11 2.24 2.35 2.44 2.57 2.71 2.75 2.79 2.90 2.87 2.91 2.89 2.67 2.53 2.44 2.10 1.74 1.75 1.65 1.56 1.45 1.35 1.28 1.25 1.31 1.42 1.60 1.78 1.87 1.93 2.00 2.05 2.06
2.08 1.99 1.86 1.88 1.94 1.96 1.92 2.04 2.20 2.35 2.40 2.49 2.60 2.81 2.87 2.97 2.95 2.80 2.66 2.65 2.46 2.02 1.86 1.74 1.67 1.55 1.51 1.46 1.35 1.29 1.32 1.44 1.62 1.75 1.82 1.88 1.95 1.98
2.10 2.04 1.89 1.79 1.76 1.71 1.62 1.64 1.74 1.87 2.07 2.30 2.38 2.58 2.77 2.93 3.13 3.17 3.00 2.81 2.67 2.38 2.25 2.11 1.85 1.78 1.61 1.46 1.43 1.24 1.12 1.16 1.24 1.37 1.50 1.64 1.75 1.90
1.98 1.97 1.74 1.58 1.66 1.59 1.61 1.57 1.57 1.69 1.81 2.05 2.23 2.32 2.56 2.76 3.01 3.15 3.14 3.02 2.82 2.65 2.51 2.38 2.06 1.86 1.66 1.53 1.45 1.18 1.03 0.96 0.97 1.02 1.11 1.25 1.37 1.51
1.81 1.84 1.81 1.73 1.72 1.76 1.67 1.55 1.47 1.55 1.65 1.62 1.67 1.84 2.12 2.49 2.67 2.71 2.87 2.89 2.75 2.56 2.48 2.45 2.20 1.99 1.77 1.66 1.59 1.28 1.10 1.01 0.96 0.92 0.93 0.99 1.11 1.23
1.67 1.67 1.69 1.64 1.73 1.60 1.50 1.49 1.48 1.51 1.50 1.47 1.42 1.46 1.62 1.84 2.18 2.34 2.44 2.40 2.30 2.06 1.94 2.01 1.99 1.95 1.88 1.77 1.61 1.46 1.24 1.08 0.99 0.97 0.96 0.96 1.02 1.10
1.68 1.63 1.57 1.44 1.43 1.38 1.35 1.47 1.46 1.45 1.48 1.41 1.31 1.24 1.20 1.36 1.69 1.87 1.97 2.01 1.91 1.85 1.59 1.58 1.62 1.68 1.80 1.67 1.51 1.45 1.37 1.32 1.19 1.05 0.98 0.97 1.07 1.03
1.63 1.61 1.51 1.45 1.27 1.23 1.21 1.24 1.27 1.24 1.32 1.37 1.34 1.30 1.31 1.32 1.37 1.52 1.74 1.88 1.85 1.65 1.51 1.53 1.54 1.57 1.59 1.55 1.47 1.40 1.42 1.47 1.41 1.34 1.27 1.24 1.26 1.22
1.59 1.54 1.53 1.42 1.20 1.13 1.05 1.05 1.06 1.00 1.03 1.16 1.15 1.12 1.12 1.13 1.19 1.34 1.56 1.72 1.80 1.64 1.53 1.57 1.57 1.51 1.47 1.35 1.28 1.21 1.21 1.34 1.50 1.61 1.56 1.56 1.52 1.57
1.43 1.48 1.41 1.27 1.07 0.92 0.91 0.89 0.82 0.80 0.90 1.01 1.03 0.98 0.95 1.00 1.10 1.26 1.42 1.59 1.63 1.54 1.41 1.44 1.49 1.48 1.47 1.36 1.20 1.11 1.11 1.15 1.24 1.45 1.67 1.76 1.74 1.74
1.39 1.35 1.22 1.15 1.00 0.90 0.91 0.84 0.76 0.83 0.93 0.97 1.02 1.03 1.00 1.02 1.05 1.12 1.23 1.36 1.46 1.39 1.30 1.30 1.42 1.54 1.49 1.32 1.27 1.15 1.09 1.09 1.06 1.19 1.50 1.81 2.03 2.11
1.58 1.48 1.35 1.25 1.11 1.01 1.00 1.02 1.03 1.09 1.09 1.07 1.12 1.17 1.14 1.07 1.05 1.08 1.22 1.28 1.26 1.21 1.22 1.28 1.34 1.51 1.53 1.41 1.33 1.22 1.19 1.12 1.05 1.13 1.33 1.51 1.73 1.99
1.46 1.37 1.33 1.25 1.17 1.17 1.20 1.22 1.21 1.23 1.20 1.20 1.22 1.24 1.24 1.15 1.07 1.07 1.18 1.27 1.23 1.19 1.18 1.22 1.38 1.60 1.66 1.48 1.17 1.11 1.16 1.15 1.13 1.27 1.40 1.40 1.45 1.57
1.38 1.38 1.34 1.32 1.26 1.24 1.27 1.27 1.23 1.22 1.26 1.27 1.28 1.29 1.34 1.35 1.31 1.26 1.25 1.33 1.34 1.31 1.25 1.28 1.40 1.53 1.52 1.33 1.13 0.96 1.08 1.19 1.26 1.35 1.46 1.41 1.36 1.41
1.29 1.33 1.32 1.30 1.28 1.27 1.25 1.28 1.28 1.30 1.29 1.28 1.33 1.37 1.44 1.47 1.50 1.44 1.38 1.37 1.40 1.45 1.44 1.37 1.34 1.35 1.40 1.36 1.26 1.18 1.10 1.21 1.33 1.38 1.39 1.42 1.39 1.38
1.27 1.25 1.22 1.18 1.17 1.20 1.19 1.18 1.18 1.20 1.23 1.30 1.30 1.32 1.40 1.41 1.39 1.36 1.37 1.39 1.40 1.49 1.46 1.30 1.22 1.32 1.50 1.67 1.50 1.24 1.19 1.20 1.28 1.35 1.41 1.49 1.50 1.51
1.24 1.21 1.20 1.18 1.18 1.19 1.20 1.19 1.18 1.19 1.24 1.33 1.35 1.36 1.41 1.39 1.34 1.34 1.40 1.43 1.40 1.42 1.45 1.43 1.52 1.62 1.67 1.67 1.48 1.30 1.31 1.38 1.39 1.40 1.39 1.34 1.32 1.29
1.23 1.20 1.18 1.12 1.11 1.12 1.13 1.15 1.18 1.24 1.27 1.33 1.38 1.40 1.43 1.40 1.36 1.39 1.45 1.50 1.52 1.54 1.66 1.71 1.70 1.67 1.60 1.58 1.56 1.46 1.43 1.55 1.63 1.63 1.54 1.32 1.03 0.85